                ,  0.290,  0.386,  0.483,  0.580,  0.676,  0.773,  0.869,  0.966,  1.063,  1.159,  1.256,  1.352,  1.449,  1.545,  1.642,  1.739,  1.835,  1.932,  2.028,  2.125,  2.222,  2.318,  2.415,  2.511,  2.608,  2.705,  2.801,  2.898,  2.994,  3.091,  3.188,  3.284,  3.381,  3.477,  3.574,  3.671,  3.767,  3.864,  3.960,  4.057,  4.153,  4.250,  4.347,  4.443,  4.540,  4.636,  4.733,  4.830,  4.926,  5.023,  5.119,  5.216,  5.313,  5.409,  5.506,  5.602,  5.699,  5.796
2001/03/23 00:00,  999.0,    6.4,    5.0,    5.4,    1.7,    2.1,    3.4,    1.6,    3.1,    3.0,    1.4,    2.5,    1.1,    0.2,    1.5,    0.6,    1.2,  999.0,    0.0,  999.0,  999.0,  999.0,  999.0,  999.0,  999.0,  999.0,  999.0,  999.0,  999.0,  999.0,  999.0,  999.0,  999.0,  999.0,  999.0,  999.0,  999.0,  999.0,  999.0,  999.0,  999.0,  999.0,  999.0,  999.0,  999.0,  999.0,  999.0,  999.0,  999.0,  999.0,  999.0,  999.0,  999.0,  999.0,  999.0,  999.0,  999.0,  999.0
2001/03/23 00:10,  999.0,    5.1,    3.8,    3.3,    2.7,    2.0,    3.0,    2.3,    2.7,    3.6,    2.3,    2.2,    2.0,    2.6,    1.4,    1.2,    0.8,    0.3,  999.0,  999.0,  999.0,  999.0,  999.0,  999.0,  999.0,  999.0,  999.0,  999.0,  999.0,  999.0,  999.0,  999.0,  999.0,  999.0,  999.0,  999.0,  999.0,  999.0,  999.0,  999.0,  999.0,  999.0,  999.0,  999.0,  999.0,  999.0,  999.0,  999.0,  999.0,  999.0,  999.0,  999.0,  999.0,  999.0,  999.0,  999.0,  999.0,  999.0
2001/03/23 00:20,  999.0,    6.8,    4.1,    3.4,    2.7,    2.2,    2.8,    1.5,    1.8,    2.4,    2.7,    2.6,    2.6,    2.5,    2.6,    2.0,    1.9,    1.5,    1.8,  999.0,  999.0,  999.0,  999.0,  999.0,  999.0,  999.0,  999.0,  999.0,  999.0,    1.1,  999.0,  999.0,    4.0,  999.0,  999.0,  999.0,  999.0,  999.0,  999.0,  999.0,  999.0,  999.0,  999.0,  999.0,  999.0,  999.0,  999.0,  999.0,  999.0,  999.0,  999.0,  999.0,  999.0,  999.0,  999.0,  999.0,  999.0,  999.0
2001/03/23 00:30,  999.0,  999.0,    5.9,    2.1,    1.2,    1.8,    1.4,    1.7,    1.0,    2.0,    2.0,    1.5,    1.8,    2.0,    0.8,    1.2,    1.2,    0.9,    1.0,    1.7,    2.8,  999.0,  999.0,  999.0,  999.0,  999.0,  999.0,  999.0,  999.0,  999.0,  999.0,    4.9,    4.5,  999.0,  999.0,  999.0,  999.0,  999.0,  999.0,  999.0,  999.0,  999.0,  999.0,  999.0,  999.0,  999.0,  999.0,  999.0,  999.0,  999.0,  999.0,  999.0,  999.0,  999.0,  999.0,  999.0,  999.0,  999.0
2001/03/23 00:40,  999.0,    8.2,    5.5,    3.3,    2.1,    0.5,    1.6,    1.8,    2.3,    2.8,    3.9,    2.0,    2.0,    2.2,    2.1,    1.6,    1.4,  999.0,    1.4,    2.6,  999.0,  999.0,  999.0,  999.0,  999.0,  999.0,  999.0,  999.0,  999.0,  999.0,  999.0,  999.0,  999.0,  999.0,  999.0,  999.0,  999.0,  999.0,  999.0,  999.0,  999.0,  999.0,  999.0,  999.0,  999.0,  999.0,  999.0,  999.0,  999.0,  999.0,  999.0,  999.0,  999.0,  999.0,  999.0,  999.0,  999.0,  999.0
2001/03/23 00:50,  999.0,    8.3,    4.8,    2.6,    0.6,    0.1,    0.8,    1.0,    2.9,    2.8,    2.2,    2.6,    2.4,    2.0,    1.8,    1.8,    0.2,    2.7,  999.0,  999.0,  999.0,  999.0,  999.0,  999.0,  999.0,  999.0,  999.0,  999.0,  999.0,  999.0,  999.0,  999.0,    8.6,  999.0,  999.0,  999.0,  999.0,  999.0,  999.0,  999.0,  999.0,  999.0,  999.0,  999.0,  999.0,  999.0,  999.0,  999.0,  999.0,  999.0,  999.0,  999.0,  999.0,  999.0,  999.0,  999.0,  999.0,  999.0
2001/03/23 01:00,  999.0,    6.3,    4.9,    2.4,    1.2,    0.4,    1.4,    2.9,    0.9,    2.3,    2.9,    2.8,    2.3,    1.5,    1.8,    1.5,    1.9,    2.6,  999.0,  999.0,  999.0,  999.0,  999.0,  999.0,  999.0,  999.0,  999.0,  999.0,  999.0,  999.0,  999.0,  999.0,  999.0,  999.0,  999.0,  999.0,  999.0,  999.0,  999.0,  999.0,  999.0,  999.0,  999.0,  999.0,  999.0,  999.0,  999.0,  999.0,  999.0,  999.0,  999.0,  999.0,  999.0,  999.0,  999.0,  999.0,  999.0,  999.0
2001/03/23 01:10,  999.0,    8.7,    6.7,    2.7,    2.6,    0.3,    1.8,    2.8,    2.3,    2.2,    3.0,    2.4,    2.4,    2.1,    1.5,  999.0,    2.2,    2.2,  999.0,  999.0,  999.0,  999.0,  999.0,  999.0,  999.0,  999.0,  999.0,  999.0,  999.0,  999.0,  999.0,  999.0,  999.0,    8.9,    8.9,  999.0,  999.0,  999.0,  999.0,  999.0,  999.0,  999.0,  999.0,  999.0,  999.0,  999.0,  999.0,  999.0,  999.0,  999.0,  999.0,  999.0,  999.0,  999.0,  999.0,  999.0,  999.0,  999.0
2001/03/23 01:20,  999.0,    9.1,    7.0,    2.8,    2.1,    0.1,    2.4,    3.2,    3.0,    2.6,    2.5,    2.4,    1.9,    2.0,    2.0,    2.2,    2.5,  999.0,  999.0,  999.0,    4.3,  999.0,  999.0,  999.0,  999.0,  999.0,  999.0,  999.0,  999.0,  999.0,  999.0,  999.0,  999.0,  999.0,  999.0,  999.0,  999.0,  999.0,  999.0,  999.0,  999.0,  999.0,  999.0,  999.0,  999.0,  999.0,  999.0,  999.0,  999.0,  999.0,  999.0,  999.0,  999.0,  999.0,  999.0,  999.0,  999.0,  999.0
2001/03/23 01:30,  999.0,    7.0,    2.1,    1.1,    2.4,    2.9,    1.5,    2.9,    2.5,    2.1,    2.7,    2.4,    2.6,    3.0,    2.6,    2.6,    2.6,  999.0,  999.0,  999.0,  999.0,  999.0,  999.0,  999.0,  999.0,  999.0,  999.0,  999.0,  999.0,  999.0,  999.0,  999.0,  999.0,  999.0,  999.0,  999.0,  999.0,  999.0,   24.0,   23.4,   23.5,  999.0,  999.0,  999.0,  999.0,  999.0,  999.0,  999.0,  999.0,  999.0,  999.0,  999.0,  999.0,  999.0,  999.0,  999.0,  999.0,  999.0
2001/03/23 01:40,  999.0,    7.6,    3.5,    1.2,    2.7,    1.2,    1.8,    2.5,    2.4,    2.9,    2.5,    1.5,    2.1,    2.6,    2.5,    2.7,    2.7,    2.7,  999.0,    3.5,    4.4,  999.0,  999.0,  999.0,  999.0,  999.0,  999.0,  999.0,  999.0,  999.0,  999.0,  999.0,  999.0,  999.0,  999.0,  999.0,  999.0,  999.0,  999.0,  999.0,   24.3,   23.9,  999.0,  999.0,  999.0,  999.0,  999.0,  999.0,  999.0,  999.0,  999.0,  999.0,  999.0,  999.0,  999.0,  999.0,  999.0,  999.0
2001/03/23 01:50,  999.0,    5.4,    2.9,    1.4,    0.8,    0.0,    0.7,    1.5,    3.5,    2.5,    3.0,    3.3,    3.4,    3.1,    2.3,    2.4,    2.7,    2.8,  999.0,  999.0,  999.0,  999.0,  999.0,  999.0,  999.0,  999.0,  999.0,  999.0,  999.0,  999.0,  999.0,  999.0,  999.0,  999.0,  999.0,  999.0,  999.0,  999.0,  999.0,  999.0,  999.0,  999.0,  999.0,  999.0,  999.0,  999.0,  999.0,  999.0,  999.0,  999.0,  999.0,  999.0,  999.0,  999.0,  999.0,  999.0,  999.0,  999.0
2001/03/23 02:00,  999.0,    4.8,    1.6,    1.0,    1.8,    1.7,    2.0,    1.2,    2.8,    2.7,    2.3,    2.7,    2.5,    2.3,    1.9,    2.0,    2.3,    2.7,    3.2,  999.0,    4.7,  999.0,  999.0,  999.0,  999.0,  999.0,  999.0,  999.0,   15.3,   16.8,   18.5,  999.0,  999.0,  999.0,  999.0,  999.0,   24.4,   24.4,   23.3,  999.0,  999.0,  999.0,  999.0,  999.0,  999.0,  999.0,  999.0,  999.0,  999.0,  999.0,  999.0,  999.0,  999.0,  999.0,  999.0,  999.0,  999.0,  999.0
2001/03/23 02:10,  999.0,    5.0,    2.4,    1.8,    1.7,    1.2,    1.4,    2.4,    2.8,    3.0,    2.5,    2.3,    1.8,    1.9,    1.8,    2.0,    1.8,    1.9,  999.0,  999.0,  999.0,  999.0,  999.0,  999.0,  999.0,  999.0,  999.0,  999.0,  999.0,  999.0,  999.0,  999.0,  999.0,  999.0,  999.0,  999.0,  999.0,  999.0,  999.0,  999.0,  999.0,  999.0,  999.0,  999.0,  999.0,  999.0,  999.0,  999.0,  999.0,  999.0,  999.0,  999.0,  999.0,  999.0,  999.0,  999.0,  999.0,  999.0
2001/03/23 02:20,  999.0,    2.8,    1.7,    1.2,    2.4,    1.8,    1.8,    3.3,    3.0,    3.4,    2.9,    2.6,    2.4,    1.8,    2.0,    2.0,    2.3,    2.5,    2.8,  999.0,  999.0,  999.0,  999.0,  999.0,  999.0,  999.0,  999.0,  999.0,  999.0,  999.0,  999.0,  999.0,  999.0,  999.0,  999.0,  999.0,  999.0,  999.0,  999.0,  999.0,  999.0,  999.0,  999.0,  999.0,  999.0,  999.0,  999.0,  999.0,  999.0,  999.0,  999.0,  999.0,  999.0,  999.0,  999.0,  999.0,  999.0,  999.0
2001/03/23 02:30,  999.0,    6.0,    2.7,    1.2,    0.9,    1.1,    1.1,    2.5,    3.0,    3.2,    3.1,    3.1,    2.3,    1.7,    1.3,    1.4,    1.6,    1.7,    3.1,    3.5,    3.8,    3.0,  999.0,    3.5,    3.8,  999.0,  999.0,    6.8,    6.5,    8.0,    9.3,  999.0,  999.0,  999.0,  999.0,  999.0,  999.0,  999.0,  999.0,  999.0,  999.0,  999.0,  999.0,  999.0,  999.0,  999.0,  999.0,  999.0,  999.0,  999.0,  999.0,  999.0,  999.0,  999.0,  999.0,  999.0,  999.0,  999.0
2001/03/23 02:40,  999.0,    4.5,    2.9,    1.8,    2.2,    2.9,    3.0,    3.5,    3.4,    3.5,    3.5,    3.1,    2.2,    1.6,    1.6,    2.2,    2.1,    2.2,    3.2,    3.4,    3.2,    3.5,  999.0,  999.0,  999.0,  999.0,  999.0,  999.0,    9.1,   10.6,  999.0,  999.0,  999.0,  999.0,  999.0,  999.0,  999.0,  999.0,  999.0,  999.0,  999.0,  999.0,  999.0,  999.0,  999.0,  999.0,  999.0,  999.0,  999.0,  999.0,  999.0,  999.0,  999.0,  999.0,  999.0,  999.0,  999.0,  999.0
2001/03/23 02:50,  999.0,    5.2,    2.7,    1.4,    2.6,    3.3,    3.0,    3.3,    3.6,    3.1,    3.2,    3.1,    3.2,    2.4,    1.6,    1.1,    0.6,    1.1,    1.7,    2.6,    3.9,  999.0,  999.0,  999.0,  999.0,  999.0,  999.0,  999.0,  999.0,  999.0,  999.0,  999.0,  999.0,  999.0,  999.0,  999.0,  999.0,  999.0,  999.0,  999.0,  999.0,  999.0,  999.0,  999.0,  999.0,  999.0,  999.0,  999.0,  999.0,  999.0,  999.0,  999.0,  999.0,  999.0,  999.0,  999.0,  999.0,  999.0
2001/03/23 03:00,  999.0,    4.2,    1.4,    1.8,    2.0,    1.3,    3.3,    3.7,    3.7,    3.4,    2.2,    2.2,    1.9,    2.1,    1.5,    1.1,    1.8,    0.6,    1.8,    2.4,    3.2,    2.4,  999.0,  999.0,  999.0,    2.9,  999.0,  999.0,  999.0,  999.0,  999.0,  999.0,  999.0,  999.0,  999.0,  999.0,  999.0,  999.0,  999.0,  999.0,  999.0,  999.0,  999.0,  999.0,  999.0,  999.0,  999.0,  999.0,  999.0,  999.0,  999.0,  999.0,  999.0,  999.0,  999.0,  999.0,  999.0,  999.0
2001/03/23 03:10,  999.0,    3.3,    1.0,    1.2,    1.2,    1.4,    2.9,    3.3,    3.2,    3.5,    2.1,    1.9,    1.9,    2.1,    2.4,    2.5,  999.0,    2.7,  999.0,    3.3,    4.1,    2.9,    2.6,  999.0,  999.0,  999.0,  999.0,  999.0,  999.0,  999.0,  999.0,  999.0,  999.0,  999.0,  999.0,  999.0,  999.0,  999.0,  999.0,  999.0,    1.0,  999.0,  999.0,  999.0,  999.0,  999.0,  999.0,  999.0,  999.0,  999.0,  999.0,  999.0,  999.0,  999.0,  999.0,  999.0,  999.0,  999.0
2001/03/23 03:20,  999.0,    1.2,    1.3,    0.5,    0.7,   -0.3,    1.9,    2.4,    4.0,    3.6,    2.9,    1.3,    1.2,    1.4,    2.2,    2.2,    2.3,    2.5,    2.7,    3.2,    3.5,    3.0,    2.5,  999.0,  999.0,  999.0,  999.0,    2.9,  999.0,  999.0,  999.0,  999.0,  999.0,  999.0,  999.0,  999.0,  999.0,  999.0,  999.0,  999.0,    1.3,  999.0,  999.0,  999.0,  999.0,  999.0,  999.0,  999.0,  999.0,  999.0,  999.0,  999.0,  999.0,  999.0,  999.0,  999.0,  999.0,  999.0
2001/03/23 03:30,  999.0,    2.3,    1.1,    0.7,    3.2,    1.7,    2.2,    3.3,    4.7,    4.1,    2.7,    2.0,    2.3,    2.7,    2.9,    2.7,    2.0,    2.2,    3.0,    4.1,    4.9,  999.0,  999.0,  999.0,  999.0,  999.0,  999.0,  999.0,  999.0,  999.0,  999.0,  999.0,  999.0,  999.0,  999.0,  999.0,  999.0,  999.0,  999.0,  999.0,  999.0,  999.0,  999.0,  999.0,  999.0,  999.0,  999.0,  999.0,  999.0,  999.0,  999.0,  999.0,  999.0,  999.0,  999.0,  999.0,  999.0,  999.0
2001/03/23 03:40,  999.0,    4.5,    1.5,  999.0,    1.6,    2.1,    2.7,    2.9,    3.6,    5.3,    3.7,    1.8,    0.7,    1.5,    2.2,    2.2,    1.7,    2.4,    3.0,    3.6,    3.9,    4.4,  999.0,  999.0,  999.0,  999.0,  999.0,    5.0,  999.0,  999.0,  999.0,  999.0,  999.0,  999.0,  999.0,  999.0,  999.0,  999.0,  999.0,  999.0,  999.0,  999.0,  999.0,  999.0,  999.0,  999.0,  999.0,  999.0,  999.0,  999.0,  999.0,  999.0,  999.0,  999.0,  999.0,  999.0,  999.0,  999.0
2001/03/23 03:50,  999.0,    5.6,    2.0,    0.8,    1.2,    1.4,    2.1,    3.2,    5.0,    5.2,    4.2,    2.8,    1.5,    2.0,    2.0,    2.4,    2.4,    2.9,    3.7,    4.9,    5.1,    5.2,    5.1,  999.0,  999.0,  999.0,  999.0,  999.0,  999.0,  999.0,  999.0,  999.0,  999.0,  999.0,  999.0,  999.0,  999.0,  999.0,  999.0,  999.0,  999.0,  999.0,  999.0,  999.0,  999.0,  999.0,  999.0,  999.0,  999.0,  999.0,  999.0,  999.0,  999.0,  999.0,  999.0,  999.0,  999.0,  999.0
2001/03/23 04:00,  999.0,    6.8,    3.3,    1.9,    1.0,    1.4,    3.2,    3.9,    4.0,    3.9,    2.9,    1.9,    1.4,    1.6,    1.9,    2.6,    3.1,    3.2,    3.7,    5.1,    5.8,    5.6,  999.0,  999.0,  999.0,  999.0,  999.0,  999.0,  999.0,  999.0,  999.0,  999.0,  999.0,  999.0,  999.0,  999.0,  999.0,  999.0,  999.0,  999.0,  999.0,  999.0,  999.0,  999.0,  999.0,  999.0,  999.0,  999.0,  999.0,  999.0,  999.0,  999.0,  999.0,  999.0,  999.0,  999.0,  999.0,  999.0
2001/03/23 04:10,  999.0,    5.9,    2.8,    1.8,    2.6,    0.5,    2.2,    3.8,    5.1,    3.9,    2.3,    1.9,    2.1,    2.9,    3.4,    3.2,    3.4,    3.7,    4.4,    4.8,    5.3,    5.4,  999.0,  999.0,  999.0,  999.0,  999.0,  999.0,  999.0,  999.0,  999.0,  999.0,  999.0,  999.0,  999.0,  999.0,  999.0,  999.0,  999.0,  999.0,  999.0,  999.0,  999.0,  999.0,  999.0,  999.0,  999.0,  999.0,  999.0,  999.0,  999.0,  999.0,  999.0,  999.0,  999.0,  999.0,  999.0,  999.0
2001/03/23 04:20,  999.0,  999.0,    3.5,    2.2,    2.3,    1.6,    3.3,    2.7,    3.9,    4.9,    3.4,    2.6,    2.6,    2.0,    1.4,    1.9,    2.5,    3.0,    4.0,    5.5,    5.9,    6.3,    6.3,  999.0,  999.0,  999.0,  999.0,    9.9,  999.0,  999.0,  999.0,  999.0,  999.0,  999.0,  999.0,  999.0,  999.0,  999.0,  999.0,  999.0,  999.0,  999.0,  999.0,  999.0,  999.0,  999.0,  999.0,  999.0,  999.0,  999.0,  999.0,  999.0,  999.0,  999.0,  999.0,  999.0,  999.0,  999.0
2001/03/23 04:30,  999.0,  999.0,    1.8,    2.0,    1.2,    2.9,    3.6,    3.6,    5.4,    5.4,    4.4,    3.7,    1.6,    1.2,    1.3,    1.7,    2.2,    3.0,    4.3,    6.3,    6.8,    6.9,    7.4,  999.0,  999.0,  999.0,  999.0,  999.0,  999.0,  999.0,  999.0,  999.0,  999.0,  999.0,  999.0,  999.0,  999.0,  999.0,  999.0,  999.0,  999.0,  999.0,  999.0,  999.0,  999.0,  999.0,  999.0,  999.0,  999.0,  999.0,  999.0,  999.0,  999.0,  999.0,  999.0,  999.0,  999.0,  999.0
2001/03/23 04:40,  999.0,  999.0,    2.1,   -0.6,   -2.9,   -0.3,    2.1,    3.5,    5.1,    4.6,    3.5,    2.7,    0.4,   -0.2,   -1.0,    0.3,    0.7,    1.2,    2.3,    0.7,    2.3,  999.0,  999.0,  999.0,  999.0,  999.0,  999.0,  999.0,  999.0,  999.0,  999.0,  999.0,  999.0,  999.0,  999.0,  999.0,  999.0,  999.0,  999.0,  999.0,  999.0,  999.0,  999.0,  999.0,  999.0,  999.0,  999.0,  999.0,  999.0,  999.0,  999.0,  999.0,  999.0,  999.0,  999.0,  999.0,  999.0,  999.0
2001/03/23 04:50,  999.0,  999.0,   -1.7,    0.1,    1.2,    1.4,    2.9,    4.5,    5.9,    5.6,    5.1,    3.0,    0.4,   -1.7,   -1.2,   -0.3,    0.4,    0.6,    0.3,    1.4,    3.1,    4.1,  999.0,  999.0,  999.0,  999.0,  999.0,  999.0,  999.0,  999.0,  999.0,  999.0,  999.0,  999.0,  999.0,  999.0,  999.0,  999.0,  999.0,  999.0,  999.0,  999.0,  999.0,  999.0,  999.0,  999.0,  999.0,  999.0,  999.0,  999.0,  999.0,  999.0,  999.0,  999.0,  999.0,  999.0,  999.0,  999.0
2001/03/23 05:00,  999.0,  999.0,   -2.4,   -1.8,   -0.5,   -0.2,    1.3,    2.0,    2.8,    2.8,    2.8,   -0.2,   -3.1,   -3.0,   -1.9,   -1.5,   -1.2,   -1.6,   -0.3,    1.4,    2.7,    3.7,  999.0,  999.0,  999.0,  999.0,  999.0,  999.0,  999.0,  999.0,  999.0,  999.0,  999.0,  999.0,  999.0,  999.0,  999.0,  999.0,  999.0,  999.0,  999.0,  999.0,  999.0,  999.0,  999.0,  999.0,  999.0,  999.0,  999.0,  999.0,  999.0,  999.0,  999.0,  999.0,  999.0,  999.0,  999.0,  999.0
2001/03/23 05:10,  999.0,  999.0,   -2.2,   -0.5,   -1.6,   -0.4,    1.4,    3.1,    1.9,    0.2,   -1.2,   -2.2,   -2.4,   -2.3,   -2.1,   -1.9,   -1.1,   -0.3,    0.9,    2.4,    3.9,  999.0,    7.0,    7.7,  999.0,  999.0,  999.0,  999.0,  999.0,  999.0,  999.0,  999.0,  999.0,  999.0,  999.0,  999.0,  999.0,  999.0,  999.0,  999.0,  999.0,  999.0,  999.0,  999.0,  999.0,  999.0,  999.0,  999.0,  999.0,  999.0,  999.0,  999.0,  999.0,  999.0,  999.0,  999.0,  999.0,  999.0
2001/03/23 05:20,  999.0,    0.8,   -1.5,   -0.8,   -0.1,    1.8,    0.8,    2.4,   -0.6,   -1.6,   -1.8,   -1.5,   -0.9,   -0.9,   -1.0,   -0.5,   -1.0,    0.0,    0.3,    2.3,    3.7,    6.0,  999.0,  999.0,    6.4,  999.0,  999.0,  999.0,  999.0,  999.0,  999.0,  999.0,  999.0,  999.0,  999.0,  999.0,  999.0,  999.0,  999.0,  999.0,  999.0,  999.0,  999.0,  999.0,  999.0,  999.0,  999.0,  999.0,  999.0,  999.0,  999.0,  999.0,  999.0,  999.0,  999.0,  999.0,  999.0,  999.0
2001/03/23 05:30,  999.0,   -2.1,   -1.2,   -2.2,   -1.0,    0.2,   -1.1,   -2.2,   -2.5,   -2.2,   -1.8,   -1.8,   -1.6,   -0.9,   -0.9,   -0.3,    0.2,    0.7,    0.3,  999.0,  999.0,  999.0,  999.0,  999.0,  999.0,  999.0,  999.0,  999.0,  999.0,  999.0,  999.0,  999.0,  999.0,  999.0,  999.0,  999.0,  999.0,  999.0,  999.0,  999.0,  999.0,  999.0,  999.0,  999.0,  999.0,  999.0,  999.0,  999.0,  999.0,  999.0,  999.0,  999.0,  999.0,  999.0,  999.0,  999.0,  999.0,  999.0
2001/03/23 05:40,  999.0,   -1.9,   -2.1,   -2.1,   -2.9,   -1.6,   -2.2,   -2.4,   -1.4,   -1.0,   -0.7,   -0.5,   -1.6,   -1.2,   -0.9,   -0.5,    0.0,    1.2,    1.5,    1.4,    3.0,    2.8,    3.4,    3.6,    3.1,    3.1,  999.0,  999.0,  999.0,  999.0,  999.0,  999.0,  999.0,  999.0,  999.0,  999.0,  999.0,  999.0,  999.0,  999.0,  999.0,  999.0,  999.0,  999.0,  999.0,  999.0,  999.0,  999.0,  999.0,  999.0,  999.0,  999.0,  999.0,  999.0,  999.0,  999.0,  999.0,  999.0
2001/03/23 05:50,  999.0,   -0.1,    0.0,    0.0,   -0.6,   -0.5,   -0.9,   -0.8,   -0.7,   -0.5,   -0.5,   -0.2,   -0.3,   -0.7,   -0.3,    0.1,    0.7,    1.8,    2.8,    3.0,    2.7,    3.2,    4.0,    3.8,  999.0,  999.0,  999.0,  999.0,  999.0,  999.0,  999.0,  999.0,  999.0,  999.0,  999.0,  999.0,  999.0,  999.0,  999.0,  999.0,    2.1,    2.3,    1.9,  999.0,  999.0,  999.0,  999.0,  999.0,  999.0,  999.0,  999.0,  999.0,  999.0,  999.0,  999.0,  999.0,  999.0,  999.0
2001/03/23 06:00,  999.0,   -3.9,   -3.7,   -1.3,   -0.8,   -0.2,    0.4,    1.0,   -0.0,    0.2,   -0.6,   -0.9,   -1.7,   -2.3,   -2.3,   -1.1,   -0.2,    0.6,    2.1,    2.3,    1.8,    1.3,    2.0,    3.0,  999.0,    2.3,    3.0,  999.0,  999.0,  999.0,  999.0,  999.0,  999.0,  999.0,  999.0,  999.0,  999.0,  999.0,  999.0,  999.0,  999.0,  999.0,  999.0,  999.0,  999.0,  999.0,  999.0,  999.0,  999.0,  999.0,  999.0,  999.0,  999.0,  999.0,  999.0,    3.4,  999.0,  999.0
2001/03/23 06:10,  999.0,   -3.1,   -1.0,   -1.7,    0.1,    0.5,   -0.3,    0.1,   -0.3,   -0.1,    0.0,   -0.5,   -0.8,   -0.4,   -0.3,    0.2,    0.8,    1.1,    0.8,    0.8,    1.7,    2.3,  999.0,    3.6,  999.0,  999.0,  999.0,  999.0,  999.0,  999.0,  999.0,  999.0,  999.0,  999.0,  999.0,  999.0,  999.0,  999.0,  999.0,  999.0,  999.0,  999.0,  999.0,  999.0,  999.0,  999.0,  999.0,  999.0,  999.0,  999.0,  999.0,  999.0,  999.0,  999.0,  999.0,  999.0,  999.0,  999.0
2001/03/23 06:20,  999.0,   -1.9,   -1.0,    1.9,    1.6,   -0.4,   -1.9,   -2.1,   -1.7,   -1.5,   -1.5,   -0.6,   -1.2,   -1.5,   -1.0,   -0.8,    0.5,    0.7,    0.3,    1.5,    1.6,    0.7,  999.0,    1.8,    1.6,  999.0,  999.0,  999.0,  999.0,  999.0,  999.0,  999.0,  999.0,  999.0,  999.0,  999.0,  999.0,  999.0,  999.0,  999.0,  999.0,  999.0,  999.0,  999.0,  999.0,  999.0,  999.0,  999.0,  999.0,  999.0,  999.0,  999.0,  999.0,  999.0,  999.0,  999.0,  999.0,  999.0
2001/03/23 06:30,  999.0,  999.0,    0.9,    2.7,    0.9,   -0.6,   -1.7,   -1.3,   -1.9,   -1.3,   -1.6,   -1.5,   -1.9,   -1.8,   -1.9,   -0.9,   -0.6,   -1.1,   -0.1,   -0.0,    0.6,  999.0,  999.0,  999.0,  999.0,  999.0,  999.0,  999.0,  999.0,  999.0,  999.0,  999.0,  999.0,  999.0,  999.0,  999.0,  999.0,  999.0,  999.0,  999.0,  999.0,  999.0,  999.0,  999.0,  999.0,  999.0,  999.0,  999.0,  999.0,  999.0,  999.0,  999.0,  999.0,  999.0,  999.0,  999.0,  999.0,  999.0
2001/03/23 06:40,  999.0,  999.0,    0.2,    1.4,    4.0,    1.7,   -0.5,    0.3,   -2.1,   -1.8,   -1.5,   -0.9,   -0.3,    0.5,    0.9,    0.8,    0.9,    0.8,    0.4,    0.7,  999.0,    1.3,  999.0,  999.0,    0.6,  999.0,  999.0,  999.0,  999.0,  999.0,  999.0,  999.0,  999.0,  999.0,  999.0,  999.0,  999.0,  999.0,  999.0,  999.0,  999.0,  999.0,  999.0,  999.0,  999.0,  999.0,  999.0,  999.0,  999.0,  999.0,  999.0,  999.0,  999.0,  999.0,  999.0,  999.0,  999.0,  999.0
2001/03/23 06:50,  999.0,   -1.0,    1.1,    3.3,    1.2,   -0.1,    0.1,   -0.3,   -1.6,   -2.3,   -1.8,   -1.8,   -0.5,    2.2,    2.5,    2.4,    2.3,    1.2,    0.5,    0.2,    0.8,  999.0,  999.0,  999.0,  999.0,  999.0,  999.0,  999.0,  999.0,  999.0,  999.0,  999.0,  999.0,  999.0,  999.0,  999.0,  999.0,  999.0,  999.0,  999.0,  999.0,  999.0,  999.0,  999.0,  999.0,  999.0,  999.0,  999.0,  999.0,  999.0,  999.0,  999.0,  999.0,  999.0,  999.0,  999.0,  999.0,  999.0
2001/03/23 07:00,  999.0,    0.9,    0.9,    1.3,    0.3,    0.4,   -1.4,   -3.3,   -3.0,   -0.8,    0.6,    1.7,    2.9,    3.7,    3.4,    2.0,    0.4,    1.1,   -0.6,    0.4,  999.0,  999.0,  999.0,  999.0,  999.0,  999.0,  999.0,  999.0,  999.0,  999.0,  999.0,  999.0,  999.0,  999.0,  999.0,  999.0,  999.0,  999.0,  999.0,  999.0,  999.0,  999.0,  999.0,  999.0,  999.0,  999.0,  999.0,  999.0,  999.0,  999.0,  999.0,  999.0,  999.0,  999.0,  999.0,  999.0,  999.0,  999.0
2001/03/23 07:10,  999.0,    0.1,    0.9,    2.6,    3.0,    1.5,   -1.9,   -2.2,    0.9,    2.9,    3.5,    4.3,    5.5,    4.9,    3.3,    1.4,    1.1,    2.6,    2.5,    1.8,  999.0,  999.0,  999.0,  999.0,  999.0,  999.0,  999.0,  999.0,  999.0,  999.0,  999.0,  999.0,  999.0,  999.0,  999.0,  999.0,  999.0,  999.0,  999.0,  999.0,  999.0,  999.0,  999.0,  999.0,  999.0,   19.9,  999.0,  999.0,  999.0,  999.0,  999.0,  999.0,  999.0,  999.0,  999.0,  999.0,  999.0,  999.0
2001/03/23 07:20,  999.0,    0.2,    1.0,    0.5,    0.4,   -0.9,   -0.5,   -0.0,    0.9,    3.2,    3.0,    2.8,    2.1,    1.2,    1.6,    0.7,   -0.0,    1.3,    1.4,    0.8,  999.0,  999.0,  999.0,  999.0,  999.0,  999.0,  999.0,  999.0,  999.0,  999.0,  999.0,  999.0,  999.0,  999.0,  999.0,  999.0,  999.0,  999.0,  999.0,  999.0,  999.0,  999.0,  999.0,  999.0,  999.0,  999.0,  999.0,  999.0,  999.0,  999.0,  999.0,  999.0,  999.0,  999.0,  999.0,  999.0,  999.0,  999.0
2001/03/23 07:30,  999.0,    1.1,    0.3,   -0.1,   -1.7,   -1.7,   -2.8,   -0.8,    1.4,    2.5,    2.9,    2.8,    2.2,    1.6,    0.4,    0.8,   -0.1,    0.5,   -0.1,   -0.9,   -1.8,  999.0,  999.0,  999.0,  999.0,  999.0,  999.0,  999.0,  999.0,  999.0,  999.0,  999.0,  999.0,  999.0,  999.0,  999.0,  999.0,  999.0,    0.6,  999.0,  999.0,    0.9,  999.0,  999.0,  999.0,  999.0,    0.8,  999.0,    0.7,    0.9,    0.3,    0.3,    0.7,    0.9,  999.0,    0.3,  999.0,    1.8
2001/03/23 07:40,  999.0,    0.7,    0.7,    0.1,   -0.4,   -2.0,   -1.1,   -1.0,    0.7,    1.8,    1.9,    1.9,    0.8,   -0.6,   -1.0,   -0.8,   -0.1,    0.1,    0.7,    1.3,    0.5,  999.0,  999.0,  999.0,  999.0,  999.0,  999.0,  999.0,  999.0,  999.0,  999.0,  999.0,  999.0,  999.0,  999.0,  999.0,  999.0,    4.5,    3.9,  999.0,    1.6,    0.9,    1.3,    1.8,  999.0,  999.0,  999.0,    3.6,  999.0,  999.0,  999.0,    1.0,    0.9,  999.0,    0.8,  999.0,  999.0,    1.3
2001/03/23 07:50,  999.0,    0.3,   -1.2,   -0.7,   -1.7,   -0.7,   -0.8,   -0.3,    0.2,    2.2,    1.3,    1.7,    1.4,    0.6,   -0.5,   -1.1,   -0.9,    0.3,    0.3,    0.3,   -0.1,  999.0,   -2.8,  999.0,  999.0,  999.0,  999.0,  999.0,  999.0,  999.0,  999.0,  999.0,  999.0,  999.0,    4.4,  999.0,    0.1,    1.2,    0.7,    1.9,    1.1,    1.4,    1.3,    0.8,    0.7,  999.0,    0.6,  999.0,    0.6,  999.0,    0.6,    0.7,    0.6,  999.0,    0.5,    0.8,    0.5,    0.3
2001/03/23 08:00,  999.0,    0.2,   -0.1,   -0.5,   -1.6,   -0.8,   -0.6,    1.8,    2.2,    2.1,    1.7,    2.2,    0.7,   -0.4,   -1.3,   -1.1,   -2.0,   -0.2,    0.4,    0.3,    0.5,  999.0,  999.0,  999.0,  999.0,  999.0,  999.0,  999.0,  999.0,  999.0,  999.0,  999.0,  999.0,  999.0,  999.0,  999.0,    3.6,  999.0,    2.1,    1.4,    0.9,    0.2,    0.8,    1.1,    1.3,    1.1,    0.9,    1.2,  999.0,    0.8,    0.5,    0.9,    1.3,  999.0,    0.2,   -0.0,    0.5,    0.4
2001/03/23 08:10,  999.0,    0.8,   -0.2,   -0.4,   -0.6,   -2.2,   -0.0,    1.2,    0.9,    1.0,    1.0,    0.5,    0.0,   -0.5,   -0.9,   -1.2,   -0.9,   -1.3,    0.0,    0.6,    1.4,    1.1,   -0.6,  999.0,  999.0,  999.0,  999.0,  999.0,  999.0,  999.0,  999.0,  999.0,  999.0,  999.0,  999.0,  999.0,   10.1,  999.0,   12.8,  999.0,  999.0,  999.0,  999.0,  999.0,    1.1,  999.0,    9.5,  999.0,   18.7,  999.0,  999.0,  999.0,  999.0,  999.0,  999.0,  999.0,  999.0,  999.0
2001/03/23 08:20,  999.0,   -0.5,   -1.5,    0.4,   -0.3,   -0.2,   -1.3,    1.1,    1.7,    1.3,    1.6,    0.9,    0.7,    0.4,    0.0,   -0.9,   -1.1,   -1.5,    0.7,    0.6,    1.4,    1.8,    1.5,    1.1,  999.0,  999.0,  999.0,  999.0,  999.0,  999.0,  999.0,  999.0,  999.0,  999.0,  999.0,  999.0,  999.0,  999.0,  999.0,  999.0,  999.0,  999.0,  999.0,  999.0,  999.0,  999.0,  999.0,  999.0,  999.0,  999.0,  999.0,  999.0,  999.0,  999.0,  999.0,  999.0,  999.0,  999.0
2001/03/23 08:30,  999.0,    2.6,   -0.1,   -1.8,    0.2,   -1.0,    0.7,    1.5,    1.3,    1.3,    1.2,    1.4,    1.0,    0.5,   -0.5,   -1.2,   -1.1,  999.0,   -0.3,    0.6,    1.8,    1.9,    2.0,    0.8,  999.0,  999.0,  999.0,  999.0,  999.0,  999.0,  999.0,  999.0,  999.0,  999.0,  999.0,  999.0,  999.0,  999.0,  999.0,  999.0,  999.0,  999.0,  999.0,  999.0,  999.0,  999.0,  999.0,  999.0,  999.0,  999.0,  999.0,  999.0,  999.0,  999.0,  999.0,  999.0,  999.0,  999.0
2001/03/23 08:40,  999.0,    1.3,    0.5,   -0.7,    0.1,    1.2,    2.4,    2.1,    1.3,    0.9,    0.6,    0.3,    0.3,    0.0,   -0.3,   -1.1,   -1.7,   -2.2,   -2.3,   -0.4,    0.8,  999.0,    1.1,    0.9,  999.0,  999.0,  999.0,  999.0,  999.0,  999.0,  999.0,  999.0,  999.0,  999.0,  999.0,  999.0,  999.0,  999.0,  999.0,  999.0,  999.0,   20.8,  999.0,  999.0,  999.0,  999.0,  999.0,  999.0,  999.0,  999.0,  999.0,  999.0,  999.0,  999.0,  999.0,  999.0,  999.0,  999.0
2001/03/23 08:50,  999.0,    2.1,    1.7,    0.6,    0.4,    1.7,    0.1,   -0.4,    0.2,    1.5,    1.7,    1.3,    0.1,    0.5,   -0.1,   -0.7,   -0.9,   -1.1,   -1.7,   -0.6,    0.7,    1.6,    1.3,    1.3,    1.2,  999.0,  999.0,  999.0,  999.0,  999.0,  999.0,  999.0,  999.0,  999.0,  999.0,  999.0,  999.0,  999.0,  999.0,  999.0,  999.0,  999.0,  999.0,  999.0,  999.0,  999.0,  999.0,  999.0,  999.0,  999.0,  999.0,  999.0,  999.0,  999.0,  999.0,  999.0,  999.0,  999.0
2001/03/23 09:00,  999.0,  999.0,  999.0,    1.0,    0.8,   -0.6,   -2.0,   -1.3,   -1.6,   -0.5,    0.3,   -0.2,   -1.1,   -0.5,   -0.7,   -0.9,   -1.0,   -0.7,   -0.5,  999.0,  999.0,    1.2,    0.3,    0.5,  999.0,  999.0,  999.0,  999.0,  999.0,  999.0,  999.0,  999.0,  999.0,  999.0,  999.0,  999.0,  999.0,  999.0,  999.0,  999.0,  999.0,  999.0,  999.0,  999.0,  999.0,  999.0,   22.0,  999.0,  999.0,  999.0,  999.0,  999.0,  999.0,  999.0,  999.0,  999.0,  999.0,  999.0
2001/03/23 09:10,  999.0,  999.0,    0.2,    1.1,    1.2,    0.7,   -0.6,   -0.8,   -1.6,    0.3,    1.1,    0.9,    0.6,   -0.2,   -1.1,   -1.6,   -2.2,   -0.4,   -0.3,  999.0,    1.1,    1.3,    2.0,    0.3,  999.0,  999.0,  999.0,  999.0,  999.0,  999.0,  999.0,  999.0,  999.0,  999.0,  999.0,  999.0,  999.0,  999.0,  999.0,  999.0,  999.0,  999.0,  999.0,  999.0,  999.0,   22.9,  999.0,  999.0,  999.0,  999.0,  999.0,  999.0,  999.0,  999.0,  999.0,  999.0,  999.0,  999.0
2001/03/23 09:20,  999.0,    2.0,    2.2,    1.1,   -0.1,   -1.0,   -0.8,   -0.5,   -0.5,   -1.0,    0.0,   -0.1,   -0.5,   -0.4,   -0.9,   -1.7,   -1.3,   -1.1,  999.0,  999.0,    1.5,    1.3,    1.8,    2.0,  999.0,  999.0,  999.0,  999.0,  999.0,  999.0,  999.0,  999.0,  999.0,  999.0,  999.0,  999.0,  999.0,  999.0,  999.0,  999.0,  999.0,  999.0,  999.0,  999.0,  999.0,  999.0,  999.0,   21.8,   21.7,  999.0,  999.0,  999.0,  999.0,  999.0,  999.0,  999.0,  999.0,  999.0
2001/03/23 09:30,  999.0,    2.5,    2.0,    0.8,   -0.1,   -0.5,   -0.9,    1.0,    0.4,    1.5,    1.1,   -0.4,   -0.7,   -0.0,   -0.4,   -0.9,   -1.0,   -0.8,    1.2,  999.0,    0.9,    1.2,    1.2,   -0.0,   -0.5,  999.0,  999.0,  999.0,  999.0,  999.0,  999.0,  999.0,  999.0,  999.0,  999.0,  999.0,  999.0,   20.9,  999.0,  999.0,   21.4,   21.4,  999.0,   21.3,   21.2,   21.0,  999.0,   21.6,  999.0,   21.8,  999.0,   21.6,   21.5,  999.0,   21.9,  999.0,   21.6,  999.0
2001/03/23 09:40,  999.0,  999.0,  999.0,    0.8,    0.6,   -0.7,    0.2,    0.4,   -0.1,   -0.8,    1.2,    1.5,   -0.2,   -0.6,   -0.7,   -1.1,   -1.5,   -0.0,    1.4,    2.0,    3.2,  999.0,    2.4,  999.0,  999.0,  999.0,  999.0,  999.0,  999.0,  999.0,  999.0,  999.0,  999.0,  999.0,  999.0,  999.0,  999.0,   29.4,  999.0,  999.0,  999.0,  999.0,  999.0,  999.0,  999.0,  999.0,   41.0,  999.0,  999.0,   42.1,   41.5,  999.0,  999.0,  999.0,  999.0,  999.0,  999.0,   42.0
2001/03/23 09:50,  999.0,    1.2,    1.3,   -0.7,   -0.2,   -1.6,   -1.8,    0.8,   -0.4,    1.5,    0.6,    0.9,   -0.3,   -1.1,   -1.7,   -2.3,   -2.5,    0.6,    1.3,  999.0,    3.0,    4.1,    4.6,  999.0,  999.0,  999.0,  999.0,  999.0,  999.0,  999.0,  999.0,  999.0,  999.0,  999.0,   34.8,   37.3,   37.1,   38.6,   38.5,   39.1,  999.0,   42.2,   41.8,   42.0,  999.0,   42.3,  999.0,  999.0,   41.5,   42.0,   42.2,   42.0,   42.3,  999.0,   42.1,   41.7,   41.9,  999.0
2001/03/23 10:00,  999.0,    0.2,    1.7,    2.0,    1.4,    1.4,    0.9,    0.1,   -0.6,   -0.8,   -0.4,   -1.1,   -1.9,   -3.2,   -0.9,   -2.5,   -1.1,    1.9,    3.3,  999.0,  999.0,    5.4,    6.5,  999.0,  999.0,  999.0,  999.0,  999.0,  999.0,  999.0,  999.0,  999.0,  999.0,  999.0,  999.0,  999.0,   39.9,  999.0,  999.0,   42.2,   41.5,   41.1,   41.5,   41.5,   41.8,   41.8,   41.4,   41.9,   42.4,   41.6,  999.0,   41.6,   41.9,   42.4,   41.3,   42.2,   41.6,  999.0
2001/03/23 10:10,  999.0,    2.0,    2.2,    1.7,    2.7,   -0.1,    0.0,   -0.1,   -0.2,   -0.7,    0.2,    0.3,    0.3,    0.6,    0.6,   -0.2,    0.5,    2.4,    1.0,  999.0,    4.6,    5.5,    7.1,  999.0,  999.0,  999.0,  999.0,  999.0,  999.0,  999.0,  999.0,  999.0,  999.0,  999.0,  999.0,  999.0,  999.0,  999.0,  999.0,   42.1,   42.3,   41.8,  999.0,   41.3,  999.0,   41.6,   42.1,   41.8,  999.0,   41.6,  999.0,   42.1,   42.0,   42.1,   42.1,   41.4,   41.8,  999.0
2001/03/23 10:20,  999.0,    3.0,    2.7,    2.9,    2.8,    2.6,    1.4,   -0.2,   -1.0,   -0.3,    0.5,    0.4,   -1.4,   -1.2,   -1.0,    1.0,    1.7,  999.0,  999.0,  999.0,  999.0,    7.0,    7.9,  999.0,  999.0,  999.0,  999.0,  999.0,  999.0,  999.0,  999.0,  999.0,  999.0,  999.0,  999.0,   41.5,   41.1,  999.0,  999.0,   42.1,   42.0,   42.0,   42.0,   41.5,   42.3,  999.0,   42.1,   42.0,  999.0,  999.0,  999.0,  999.0,   41.7,   42.4,   42.3,   42.1,   41.8,  999.0
2001/03/23 10:30,  999.0,    2.9,    4.0,    3.3,    3.2,    2.3,    0.5,    1.1,    0.8,    1.5,    1.3,    0.9,    0.2,   -1.3,   -0.2,    1.1,    2.2,    1.3,    4.2,  999.0,  999.0,    6.5,  999.0,  999.0,  999.0,   10.9,   17.6,  999.0,  999.0,  999.0,  999.0,  999.0,  999.0,  999.0,  999.0,  999.0,  999.0,   41.9,   41.7,   41.9,   42.3,   41.9,  999.0,  999.0,   41.7,   42.4,  999.0,   42.1,   41.1,   41.7,   41.8,  999.0,  999.0,   41.3,   42.0,  999.0,   41.8,  999.0
2001/03/23 10:40,  999.0,    3.8,    3.6,    2.7,    2.2,    2.0,    1.0,    1.3,    1.3,    1.7,    1.0,    1.4,    0.8,    0.9,    0.9,    0.6,    1.1,    0.8,    2.4,    2.8,    4.7,    4.6,  999.0,  999.0,    8.3,   12.8,  999.0,  999.0,  999.0,  999.0,  999.0,  999.0,  999.0,  999.0,  999.0,  999.0,   42.9,  999.0,  999.0,  999.0,  999.0,  999.0,   41.6,   41.9,   41.5,   42.3,  999.0,  999.0,  999.0,  999.0,   41.9,   41.7,   42.0,   42.1,  999.0,   41.4,   42.1,   42.1
2001/03/23 10:50,  999.0,    2.7,    2.2,    1.9,    2.0,    1.6,    1.1,    0.9,    0.8,    0.9,    0.9,    1.1,    0.6,   -0.1,    0.5,    0.7,    1.0,    1.1,    1.4,    1.2,    0.2,    3.3,  999.0,    3.6,    5.9,    4.6,  999.0,  999.0,  999.0,  999.0,  999.0,  999.0,  999.0,  999.0,  999.0,  999.0,  999.0,  999.0,  999.0,  999.0,  999.0,  999.0,  999.0,  999.0,   41.9,   42.0,  999.0,   41.7,   41.6,   42.1,   42.0,  999.0,   41.9,   41.6,   42.1,   41.9,   41.6,   42.0
2001/03/23 11:00,  999.0,    3.8,    3.6,    4.1,    3.0,    1.8,    2.0,    1.5,    1.3,    1.0,    1.0,    1.2,    0.8,   -0.1,    0.9,    1.9,    2.8,    3.0,  999.0,    3.9,    5.2,    5.7,  999.0,  999.0,    8.7,    9.3,    8.2,  999.0,  999.0,  999.0,  999.0,  999.0,  999.0,  999.0,  999.0,  999.0,  999.0,  999.0,  999.0,  999.0,  999.0,  999.0,  999.0,  999.0,  999.0,  999.0,  999.0,  999.0,   42.0,   41.8,   39.5,  999.0,  999.0,  999.0,   37.2,   36.5,   41.5,   31.7
2001/03/23 11:10,  999.0,    2.9,    2.6,    2.5,    2.8,    2.5,    2.3,    2.3,    1.7,    1.6,    1.3,    0.9,    1.7,    2.2,    2.6,    2.7,    3.0,    2.3,    2.5,    3.4,    3.3,    5.9,  999.0,    5.3,  999.0,  999.0,  999.0,  999.0,  999.0,  999.0,  999.0,  999.0,  999.0,  999.0,  999.0,  999.0,  999.0,  999.0,  999.0,  999.0,  999.0,  999.0,  999.0,  999.0,  999.0,  999.0,   41.4,  999.0,  999.0,  999.0,  999.0,  999.0,  999.0,  999.0,  999.0,  999.0,  999.0,   41.4
2001/03/23 11:20,  999.0,    4.1,    3.8,    3.3,    2.9,    3.9,    3.5,    3.0,    2.7,    1.4,    1.4,    1.1,    0.4,   -0.7,  999.0,    0.4,    0.6,  999.0,    3.4,    4.5,    1.0,    4.7,    3.0,    8.2,    7.8,   10.6,  999.0,  999.0,  999.0,  999.0,  999.0,  999.0,  999.0,  999.0,  999.0,  999.0,  999.0,  999.0,  999.0,  999.0,  999.0,  999.0,  999.0,  999.0,  999.0,  999.0,  999.0,  999.0,  999.0,  999.0,  999.0,   41.9,  999.0,  999.0,   41.6,  999.0,   41.9,   42.5
2001/03/23 11:30,  999.0,    3.7,    6.9,    5.2,    3.0,    2.5,    2.1,    2.6,    2.6,    2.4,    2.3,    2.5,    1.6,   -0.1,  999.0,   -0.4,  999.0,  999.0,    2.4,  999.0,    2.9,  999.0,  999.0,  999.0,  999.0,  999.0,  999.0,  999.0,  999.0,  999.0,  999.0,  999.0,  999.0,  999.0,  999.0,  999.0,  999.0,  999.0,  999.0,   42.0,  999.0,  999.0,   42.4,   42.4,  999.0,  999.0,   42.5,  999.0,   42.5,   41.4,   41.8,   42.2,  999.0,  999.0,  999.0,   42.7,  999.0,   42.6
2001/03/23 11:40,  999.0,    3.1,    2.5,    2.7,    3.5,    2.3,    1.4,    1.5,    3.2,    2.9,    2.4,    1.7,    1.4,    0.8,    1.3,    0.9,   -1.7,   -6.1,  999.0,   -7.9,   -3.4,  999.0,   -8.8,   -6.2,  999.0,  999.0,  999.0,  999.0,  999.0,    7.9,  999.0,  999.0,  999.0,  999.0,   12.9,  999.0,  999.0,  999.0,   25.0,   21.0,   21.2,  999.0,  999.0,  999.0,   12.0,  999.0,  999.0,    5.7,   27.5,  999.0,   15.2,   42.4,  999.0,  999.0,  999.0,  999.0,   18.7,  999.0
2001/03/23 11:50,  999.0,    1.9,    3.2,    4.6,    5.2,    4.8,    5.6,    4.7,    5.1,    4.6,    3.8,    3.3,    2.0,    0.5,   -3.0,   -2.3,   -0.5,    2.2,    2.2,    2.9,  999.0,  999.0,  999.0,  999.0,  999.0,  999.0,  999.0,  999.0,  999.0,  999.0,   33.3,   34.3,  999.0,   42.2,   40.2,   35.9,   42.6,   41.8,  999.0,  999.0,   42.0,   42.3,   40.7,  999.0,   37.3,  999.0,   38.2,   42.0,   24.8,   38.0,   41.8,   42.6,   42.9,  999.0,   30.4,   41.6,   42.0,   41.9
2001/03/23 12:00,  999.0,   -0.5,    1.5,    1.1,    0.3,    2.3,    1.9,    2.7,    2.8,    2.9,    2.4,    2.5,    1.5,    1.0,    2.9,    1.8,    2.7,    3.0,    4.4,    4.3,  999.0,  999.0,  999.0,  999.0,  999.0,  999.0,  999.0,  999.0,  999.0,  999.0,  999.0,  999.0,  999.0,  999.0,  999.0,  999.0,  999.0,  999.0,  999.0,  999.0,  999.0,  999.0,  999.0,  999.0,  999.0,  999.0,  999.0,  999.0,  999.0,  999.0,  999.0,  999.0,  999.0,  999.0,  999.0,  999.0,  999.0,  999.0
2001/03/23 12:10,  999.0,   -0.5,    2.1,    3.6,    1.9,    3.4,    3.3,    1.9,    3.2,    2.8,    2.4,    1.8,    1.7,    1.6,    1.5,    1.7,    1.0,    0.7,    1.2,    1.1,    2.2,    2.1,    0.3,   -1.6,  999.0,  999.0,  999.0,  999.0,  999.0,  999.0,  999.0,  999.0,  999.0,  999.0,  999.0,  999.0,  999.0,  999.0,  999.0,  999.0,  999.0,  999.0,  999.0,  999.0,  999.0,  999.0,  999.0,  999.0,  999.0,  999.0,  999.0,  999.0,  999.0,  999.0,  999.0,  999.0,  999.0,  999.0
2001/03/23 12:20,  999.0,    5.2,    2.1,    2.3,    0.7,    2.3,    3.3,    4.0,    2.5,    2.6,    3.2,    2.9,    3.1,    2.7,    1.9,    1.2,    1.1,    0.7,   -0.7,   -0.7,   -1.8,   -0.9,   -2.8,   -3.9,   -3.1,   -5.6,   -8.1,  -10.0,  -10.5,  -12.7,  -15.3,  -21.4,  999.0,  999.0,  999.0,  999.0,  999.0,  999.0,  999.0,  999.0,  -41.8,  -40.8,  -41.8,  999.0,  999.0,  -42.3,  999.0,  -42.2,  -42.4,  999.0,  -42.4,  999.0,  999.0,  -42.2,  999.0,  -35.1,  999.0,  999.0
2001/03/23 12:30,  999.0,    3.1,    3.9,    4.0,    3.7,    3.2,    3.3,    3.1,    2.9,    3.5,    3.6,    5.2,    3.8,   -0.9,    2.1,    1.8,    1.4,    1.3,    2.1,    3.0,    0.9,   -0.1,   -1.0,  999.0,  999.0,   -7.5,  -10.1,  -10.8,  -12.0,  -13.0,  -14.5,  -16.8,  999.0,  999.0,  999.0,  999.0,  999.0,  999.0,  999.0,  999.0,  999.0,  999.0,  999.0,  999.0,  999.0,  999.0,  999.0,  999.0,  999.0,  999.0,    0.6,  999.0,    0.9,  999.0,  999.0,  999.0,  999.0,  999.0
2001/03/23 12:40,  999.0,    4.0,    4.0,    4.6,    5.2,    4.5,    4.8,    4.9,    4.7,    4.5,    5.4,    5.4,    6.1,    6.5,    5.8,    3.6,    2.0,    1.1,   -1.6,   -0.7,   -0.2,   -0.7,    3.3,    1.9,    8.2,    3.3,   -2.5,   -4.7,   -2.8,   -8.8,  -10.4,  -14.8,  -18.4,  -21.2,  -22.4,  999.0,  999.0,  -27.4,  -28.1,  -25.4,  -25.0,  -17.7,  -13.4,   -9.0,   -3.0,   -2.7,    0.4,    1.5,  999.0,  999.0,  999.0,   -2.6,  999.0,  999.0,  999.0,  -12.9,  999.0,  -15.3
2001/03/23 12:50,  999.0,    3.3,    4.0,    3.7,    3.2,    2.8,    2.5,    2.3,    2.2,    1.9,    2.2,    3.4,    4.3,    5.3,    5.9,    6.6,    7.7,    7.6,    7.8,    7.7,    8.6,    8.9,    7.4,    5.8,    4.9,    5.5,    5.7,    5.1,    5.5,    7.6,    7.6,    7.8,    7.4,    4.4,    5.4,    6.0,    4.3,    5.0,    4.1,    6.8,    6.6,    9.3,   10.1,   12.1,   12.6,    9.3,   10.6,    9.2,  999.0,  999.0,  999.0,  999.0,  999.0,  999.0,  999.0,  999.0,  999.0,  999.0
2001/03/23 13:00,  999.0,    5.9,    7.0,    6.0,    5.7,    6.3,    8.1,    7.9,    9.6,   11.1,   10.5,    9.6,   11.3,    9.6,   10.2,   11.5,   10.8,    9.5,    5.5,    4.8,    4.6,    4.0,    4.6,    4.3,    3.8,    3.3,    2.0,    0.6,    0.3,    0.8,    1.9,    2.8,    3.0,    2.9,    3.5,    3.9,    6.8,    9.2,   13.6,   15.7,   12.5,   13.7,   15.7,   17.1,   16.3,   14.4,  999.0,  999.0,  999.0,  999.0,  999.0,  999.0,  999.0,  999.0,  999.0,  999.0,  999.0,  999.0
2001/03/23 13:10,    5.0,    5.0,    3.6,    7.5,    6.0,    4.8,    4.8,    4.9,    9.3,    7.8,    7.6,    8.2,    6.9,    7.1,   10.0,   14.3,    7.4,    7.7,    8.2,    0.6,    3.7,    3.0,    5.4,    3.2,    6.0,    9.3,   10.0,   10.5,    8.9,    7.5,   13.3,    9.6,   12.2,   13.2,   16.5,   18.8,   20.1,   20.2,   20.3,  999.0,   20.3,   19.3,  999.0,   18.9,   19.4,   19.7,  999.0,  999.0,  999.0,  999.0,  999.0,  999.0,  999.0,  999.0,  999.0,  999.0,  999.0,  999.0
2001/03/23 13:20,  999.0,    6.9,    6.4,    6.6,    6.4,    5.3,    6.1,    6.1,    5.8,    4.9,    4.4,    4.0,    3.4,    2.7,    2.3,    2.3,    1.9,    1.0,    1.6,    2.1,    2.5,  999.0,  999.0,  999.0,  999.0,  999.0,  999.0,    5.3,    5.9,   -0.6,    0.9,    0.1,    0.5,    1.3,    2.2,    2.8,   -1.0,  999.0,  999.0,  999.0,  999.0,  999.0,  999.0,    0.3,   -4.2,  999.0,  999.0,  999.0,  999.0,  999.0,  999.0,  999.0,  999.0,  999.0,  999.0,  -23.0,  999.0,  999.0
2001/03/23 13:30,  999.0,    8.2,    7.6,    6.8,    5.2,    5.4,    5.7,    4.7,    3.9,    3.9,    3.6,    3.6,    3.2,    2.8,    2.6,    2.6,    3.2,    3.1,    4.5,    6.5,  999.0,    9.2,   10.2,  999.0,  999.0,  999.0,  999.0,  999.0,  999.0,  999.0,   12.2,  999.0,   11.4,   11.2,    8.4,    2.2,    4.2,  999.0,  999.0,  999.0,  999.0,  999.0,  999.0,  999.0,  999.0,  999.0,  999.0,  999.0,   -0.7,   -0.5,   -0.4,    0.1,  999.0,  999.0,   -0.2,   -0.5,  999.0,  999.0
2001/03/23 13:40,  999.0,    8.1,    8.4,    8.0,    8.0,    8.0,    7.2,    6.9,    6.2,    5.1,    4.0,    3.7,    3.2,    3.1,    2.9,    3.5,    4.0,    5.5,    5.5,    6.5,    7.7,    9.7,  999.0,  999.0,  999.0,  999.0,  999.0,  999.0,   17.1,   15.1,  999.0,   10.9,   11.4,   11.5,  999.0,  999.0,  999.0,  999.0,  999.0,   -0.7,   -0.6,    3.9,   -2.1,  999.0,   -0.9,   -0.3,   -1.0,   -0.2,   -0.8,   -1.1,   -0.9,   -1.0,   -1.0,   -0.9,   -1.0,   -1.2,   -0.7,   -0.8
2001/03/23 13:50,  999.0,    8.2,    7.7,    7.3,    7.6,    7.4,    6.8,    5.9,    6.0,    5.3,    4.8,    4.0,    2.8,    1.9,    1.8,    2.4,    3.2,    3.4,    4.3,    5.4,    4.8,    5.7,    8.6,    7.9,  999.0,  999.0,  999.0,   17.2,   14.9,   15.2,   13.7,   17.8,   20.1,   20.7,   21.3,   22.3,   22.8,   22.2,   22.6,  999.0,   10.1,  999.0,   10.2,  999.0,  999.0,  999.0,  999.0,   -0.4,  999.0,   -0.4,   -0.7,   -0.5,   -0.7,   -0.5,   -1.1,   -0.6,  999.0,  999.0
2001/03/23 14:00,  999.0,    6.9,    7.8,    7.5,    7.5,    6.3,    5.6,    5.5,    5.2,    5.9,    5.1,    4.5,    2.7,    1.7,    1.5,    0.7,    0.6,    0.6,  999.0,  999.0,  999.0,  999.0,  999.0,  999.0,  999.0,  999.0,  999.0,  999.0,  999.0,  999.0,  999.0,  999.0,  999.0,  999.0,  999.0,  999.0,  999.0,  999.0,  999.0,  999.0,  999.0,  999.0,  999.0,  999.0,  999.0,  999.0,  999.0,  999.0,  999.0,  999.0,  999.0,  999.0,  999.0,  999.0,  999.0,  999.0,  999.0,  999.0
2001/03/23 14:10,  999.0,    8.6,    7.7,    7.4,    8.0,    8.6,    8.2,    5.0,    3.4,    2.7,    2.1,    1.9,    1.5,    0.8,    1.4,    1.0,    1.4,    1.2,  999.0,  999.0,  999.0,  999.0,  999.0,  999.0,  999.0,  999.0,  999.0,  999.0,  999.0,  999.0,  999.0,  999.0,  999.0,  999.0,  999.0,  999.0,  999.0,  999.0,  999.0,  999.0,  999.0,  999.0,  999.0,  999.0,  999.0,  999.0,  999.0,  999.0,  999.0,  999.0,  999.0,  999.0,  999.0,  999.0,  999.0,  999.0,  999.0,  999.0
2001/03/23 14:20,  999.0,    8.2,    7.8,    7.7,    7.2,    6.9,    6.4,    3.9,    1.8,    0.8,    0.7,    0.2,    0.2,    1.7,    2.3,    3.2,   -8.8,  -10.7,   -9.4,   -9.0,   -5.3,   -5.9,   -4.4,   -4.0,   -1.9,   -0.7,    1.1,    2.5,    3.7,    1.5,    2.6,    4.1,    5.5,    6.6,    7.0,    7.9,    9.5,   10.7,   11.6,   12.1,   12.7,   12.1,   10.0,    9.1,    9.6,   10.4,   10.5,    9.8,   10.5,  999.0,   12.3,  999.0,  999.0,  999.0,  999.0,  999.0,  999.0,  999.0
2001/03/23 14:30,  999.0,    9.4,    9.1,    9.8,    6.8,    7.7,    9.0,    9.6,    8.7,    7.4,    3.3,    5.6,    5.5,    2.8,    3.9,    1.5,   -1.7,   -3.5,   -2.2,   -1.4,   -2.8,   -3.5,   -3.7,   -3.5,   -3.2,   -3.1,   -3.8,   -4.8,   -4.5,   -4.5,   -3.4,   -2.4,    5.5,  999.0,  999.0,   -2.3,   -2.4,   -2.4,   -2.6,   -3.7,   -6.4,  999.0,  999.0,  999.0,  999.0,  999.0,  999.0,  999.0,  999.0,  999.0,  999.0,  999.0,  999.0,  999.0,  999.0,  999.0,  999.0,  -21.4
2001/03/23 14:40,  999.0,    4.9,    4.6,    4.7,    4.7,    3.2,    3.2,    1.6,    1.4,    0.8,   -4.2,   -5.9,   -2.8,   -4.4,   -8.6,   -5.5,   -6.2,   -4.9,   -3.7,   -3.0,   -2.9,   -3.5,    1.8,    3.0,    4.5,   -2.4,   -3.2,   -3.8,   -5.1,   -9.3,   -8.5,   -6.5,   -5.8,   -8.3,   -7.0,   -4.7,   -4.4,   -3.6,  999.0,   -1.5,   -2.3,   -1.7,   -1.4,   -0.6,   -1.6,   -1.0,   -1.6,  999.0,   -2.9,   -3.7,   -0.8,  999.0,   -1.2,  999.0,   -1.1,  999.0,   -0.8,   -0.8
2001/03/23 14:50,  999.0,   -2.0,    3.3,   -3.4,   -4.4,   -4.2,   -7.8,   -4.4,   -2.2,   -1.6,   -1.7,   -2.3,   -2.6,   -3.0,   -3.1,   -0.1,   -0.7,    1.7,    2.8,    3.6,    4.3,    4.6,   -2.3,   -3.0,   -3.3,   -3.7,   -2.9,   -2.1,   -1.4,   -1.2,   -0.2,   -0.3,    0.8,    2.1,    2.3,    2.5,    3.0,    4.0,    4.7,    5.0,    5.6,    5.8,    6.3,    7.9,    8.3,    8.1,  999.0,    5.4,  999.0,  999.0,  999.0,  999.0,  999.0,  999.0,  999.0,   -0.4,  999.0,   -0.0
2001/03/23 15:00,  999.0,   -4.4,   -2.3,    2.1,    1.2,    5.1,    4.9,    5.6,    5.7,    5.0,    3.9,    3.9,    5.5,    5.1,    2.6,   -0.6,    4.2,    5.2,    5.2,    5.4,    6.2,    5.0,    6.0,    7.1,    7.8,    7.3,    6.7,    6.0,    6.1,    6.1,    7.0,    9.5,  999.0,    8.8,    9.0,    8.6,    9.7,    7.7,    7.3,    6.1,    6.7,    5.7,    7.6,    7.5,    6.9,    3.8,    2.6,    0.7,   -0.1,   -0.3,   -0.7,   -0.4,   -0.1,   -0.2,  999.0,  999.0,  999.0,   -1.4
2001/03/23 15:10,  999.0,    0.2,    1.2,    2.0,    2.8,    2.9,    3.5,    4.4,    5.3,    1.8,    1.9,    1.6,   -1.5,  -10.5,  -11.4,  -15.9,  -15.5,  -14.8,  -14.1,  -13.3,  -11.9,  -10.5,  -10.3,   -9.9,   -9.6,   -9.0,   -8.2,   -9.3,   -6.8,   -6.9,  999.0,  999.0,  999.0,   -8.0,   -8.3,   -8.7,   -8.7,   -8.5,   -8.6,   -8.9,   -8.7,  999.0,  999.0,  999.0,  999.0,  999.0,  999.0,  999.0,  999.0,  999.0,  999.0,  999.0,  999.0,  999.0,  999.0,  999.0,  999.0,  999.0
2001/03/23 15:20,  999.0,   -0.6,    0.1,    0.6,   -0.4,   -3.0,    1.4,   -0.9,    0.6,    1.6,    0.5,   -2.4,  -10.4,  -10.1,  -10.7,  -10.7,  -10.8,  -10.8,  999.0,  999.0,  999.0,  999.0,  999.0,  999.0,  999.0,  999.0,  999.0,  999.0,  999.0,  999.0,  999.0,  999.0,  999.0,  999.0,  999.0,  999.0,  999.0,  999.0,  999.0,  999.0,  999.0,  999.0,  999.0,  999.0,  999.0,  999.0,  999.0,  999.0,  999.0,  999.0,  999.0,  999.0,  999.0,  999.0,  999.0,  999.0,  999.0,  999.0
2001/03/23 15:30,  999.0,   -5.3,   -5.0,   -5.4,   -7.6,   -7.5,   -7.1,   -7.6,   -6.7,   -8.6,  -10.5,  -11.9,  -11.1,  -11.0,  -10.6,   -9.8,   -8.0,   -6.4,   -4.1,   -1.9,   -0.0,    1.9,    2.3,    2.1,    2.8,    2.3,    1.7,    2.6,    2.4,    2.2,    1.7,    2.8,    3.9,    3.3,    2.5,    2.5,    2.5,    4.1,    5.6,    6.0,    7.0,    4.4,    6.5,   11.2,   13.3,   13.5,   12.3,   12.9,   10.4,  999.0,  999.0,  999.0,  999.0,   -0.6,   -0.9,  999.0,   -0.5,  999.0
2001/03/23 15:40,  999.0,   -3.5,   -2.8,   -1.8,   -1.0,   -0.2,    0.3,    0.9,    1.2,   -0.1,   -0.1,    1.0,   -0.3,   -0.9,   -1.5,   -0.3,    1.4,    3.3,    4.8,    4.0,    5.5,    6.6,    7.3,    7.8,    7.1,    8.1,    8.0,    7.5,    6.9,    6.8,    6.3,    7.1,    5.1,    5.5,    5.6,    7.0,    6.9,    8.6,   10.3,   10.2,    9.0,   10.6,    8.6,    9.0,    8.8,    8.1,    6.8,  999.0,  999.0,    5.1,  999.0,    3.9,  999.0,  999.0,  999.0,  999.0,    7.0,   12.2
2001/03/23 15:50,  999.0,  999.0,    3.2,    4.4,    4.6,    4.2,    3.6,    3.5,    4.3,    3.4,    2.5,    1.8,    2.5,    2.8,    2.2,    1.1,    1.2,    2.3,    4.5,    6.5,    7.3,    8.5,    9.5,    9.7,   10.2,   10.4,    9.9,    9.5,    9.4,    8.2,    7.9,    8.0,    7.9,    7.7,    7.4,    6.8,    6.3,    5.6,    5.0,    4.3,    1.8,    1.7,    0.7,    1.6,    0.8,    0.4,    0.3,    0.0,   -1.3,    5.8,    5.8,    5.4,    5.6,    6.2,    7.5,    7.7,    8.0,    7.6
2001/03/23 16:00,  999.0,    5.1,    6.2,    6.2,    7.1,    6.7,    5.9,    4.9,    4.5,    4.9,    5.5,    5.2,    4.5,    3.8,    2.3,    1.7,    1.6,    1.4,    3.7,    4.3,    4.5,    5.4,    6.4,    8.8,    9.8,    9.4,   10.5,    9.6,    9.9,   10.2,    9.4,    9.1,    9.3,    8.8,    8.7,    8.3,    8.1,    7.6,    6.3,    5.4,    5.2,    5.1,    4.4,    3.7,    3.6,    3.9,    4.4,    4.8,    4.5,    3.8,    3.5,    3.4,    3.9,    4.6,    6.5,    7.5,    8.1,    8.1
2001/03/23 16:10,  999.0,    1.5,    2.5,    3.6,    4.5,    5.7,    6.1,    6.0,    5.2,    4.5,    3.9,    3.3,    2.1,    1.2,    0.8,    0.5,    0.4,    0.3,    0.3,   -0.1,    0.2,    0.2,    0.6,    1.6,    1.8,    2.3,    1.8,    1.9,    2.3,    3.2,    3.7,    3.6,    3.0,    3.0,    3.0,    0.8,   -1.9,   -0.8,    0.4,    1.1,    0.9,    0.3,   -0.1,   -1.1,   -0.5,    1.6,    3.2,    9.6,  999.0,    4.8,    1.7,    1.2,    1.1,    0.4,  999.0,  999.0,   -3.1,   -3.0
2001/03/23 16:20,  999.0,  999.0,    1.5,    1.7,    2.7,    3.7,    4.2,    3.6,    2.7,    2.8,    3.5,    4.1,    3.4,    2.2,    1.7,    0.7,    0.6,    0.5,    0.6,    1.1,    1.1,    1.4,    1.5,    1.8,    1.0,    0.6,    0.8,    1.5,    4.0,    5.2,    5.7,    6.6,    7.3,    8.8,    8.0,   10.1,   10.3,   10.4,   10.1,   10.3,    9.4,    8.0,    7.9,    6.6,    6.3,    6.2,    5.6,    4.7,   -1.6,   -0.1,    0.0,   -0.7,   -0.3,   -0.9,   -0.4,    1.6,    1.8,    0.2
2001/03/23 16:30,  999.0,    3.3,    3.5,    4.4,    4.3,    1.7,    1.2,    1.5,    3.1,    3.5,    4.8,    3.5,    3.7,    5.3,    4.0,    3.6,    2.7,    2.4,    2.0,    1.7,    1.3,    1.4,    1.1,    1.1,    1.0,    0.4,    0.5,    0.5,    0.7,    0.4,    0.1,   -0.1,   -0.1,   -0.2,   -0.1,   -0.3,   -0.6,   -1.0,   -1.7,   -2.3,   -2.4,   -2.9,   -3.1,   -3.7,   -4.0,   -1.9,   -4.3,   -7.0,   -8.4,   -7.7,   -6.2,   -0.1,   -0.8,   -0.3,    0.0,    0.1,   -0.5,   -1.2
2001/03/23 16:40,  999.0,    1.5,   -2.5,   -4.5,   -4.0,   -7.6,   -5.4,   -4.6,   -4.7,   -4.0,   -3.7,   -3.7,   -5.3,   -4.5,   -3.5,   -2.7,   -1.9,   -1.2,   -1.3,   -1.5,   -1.6,   -1.6,   -1.8,   -2.3,   -2.2,   -2.4,   -2.9,   -3.7,   -4.5,   -5.1,   -4.0,   -3.8,   -3.8,   -3.3,   -3.3,   -3.4,   -3.2,   -3.2,   -3.3,   -3.6,   -4.4,   -4.8,   -5.6,   -5.7,  999.0,   -2.9,   -2.1,   -3.8,   -4.6,   -5.5,   -5.7,   -5.6,   -4.6,   -3.8,   -2.3,   -1.2,   -1.2,   -1.3
2001/03/23 16:50,  999.0,   -3.9,   -4.3,   -5.0,   -5.8,   -6.6,   -5.5,   -4.4,   -3.8,   -3.3,   -2.5,   -2.1,   -2.3,   -2.0,   -1.6,   -1.4,   -0.9,   -0.9,   -0.8,   -0.8,   -1.1,   -1.0,   -0.8,   -0.6,    0.0,    0.5,    0.8,    1.3,    2.0,    2.1,    1.9,    1.7,    2.0,    2.1,    2.1,   -0.5,    1.0,    0.8,   -0.9,   -3.7,   -7.1,   -5.2,   -6.6,   -4.8,   -3.4,   -5.5,   -6.9,   -7.3,   -7.2,   -6.8,   -5.7,   -4.8,   -4.0,   -2.8,   -2.3,   -1.6,   -1.4,   -1.3
2001/03/23 17:00,  999.0,   -6.8,   -1.3,   -2.0,   -0.5,   -1.5,   -1.5,   -1.0,   -0.5,    0.4,    0.2,    0.8,    0.9,   -4.3,   -1.0,   -0.6,    0.6,    2.2,    2.9,    4.6,    5.1,    2.0,    4.3,    5.8,    6.4,    6.8,    6.0,    6.0,    6.0,    5.4,    5.2,    4.7,    4.1,    4.6,    3.6,    2.6,    1.3,    0.2,   -0.2,   -3.1,   -5.3,   -2.3,   -3.2,   -3.7,   -4.4,   -5.1,   -5.3,   -5.5,   -5.2,   -4.4,   -3.7,   -2.9,   -1.7,   -0.3,    0.7,    1.3,    2.1,    2.1
2001/03/23 17:10,  999.0,  999.0,    6.0,    2.7,    3.5,    2.2,    2.3,    4.3,   -1.2,   -1.2,   -0.3,    1.0,    1.8,    1.2,    2.2,    3.3,    3.5,    3.7,    3.7,    1.7,    3.1,    2.5,    2.1,    1.7,    2.5,    2.1,    2.5,    1.6,    1.2,    0.7,    0.6,    1.1,    2.0,    2.4,    2.2,    1.9,    1.3,   -0.1,   -1.2,   -1.9,   -2.8,   -2.9,   -2.2,   -2.3,   -2.2,   -2.0,   -1.9,   -1.1,   -0.7,   -0.6,    0.0,    0.7,    0.3,    0.0,   -0.6,   -0.3,   -0.0,    0.0
2001/03/23 17:20,  999.0,  -11.1,   -4.9,   -4.7,   -4.0,   -5.7,   -4.7,   -4.6,   -5.5,   -5.9,   -5.8,   -6.0,   -5.4,   -4.6,   -4.0,   -3.3,   -2.7,   -2.8,   -3.1,   -3.2,   -3.4,   -3.3,   -3.3,   -3.3,   -3.6,   -3.9,   -4.2,   -5.5,   -5.7,   -5.8,   -5.9,   -6.0,   -6.1,   -6.3,   -6.1,   -5.7,   -5.8,   -5.3,   -5.1,   -4.9,   -4.9,   -5.5,   -6.5,   -6.4,   -6.2,   -5.3,   -3.5,   -1.8,   -0.7,    0.1,    0.7,    1.6,    1.9,    1.6,    0.4,    0.1,    0.9,    1.4
2001/03/23 17:30,  999.0,   -8.9,   -6.7,   -8.3,   -6.9,   -9.5,   -7.0,   -5.5,   -5.7,   -6.0,   -5.7,   -6.0,   -5.8,   -5.1,   -4.4,   -3.9,   -3.5,   -3.6,   -4.0,   -4.0,   -3.7,   -3.5,   -5.0,   -5.1,   -5.8,   -5.2,   -4.3,   -3.9,   -3.2,   -5.2,   -4.9,   -4.0,   -4.1,   -4.5,   -4.7,   -5.1,   -6.1,   -8.6,   -9.6,  -11.2,   -9.8,  -14.2,   -9.3,   -9.4,  -10.4,   -9.3,   -7.3,   -5.3,   -3.4,   -1.2,    1.2,    3.0,    3.7,    3.3,    2.8,    3.1,    3.9,    4.8
2001/03/23 17:40,  999.0,   -6.9,   -5.5,   -5.4,   -4.1,   -5.0,   -3.2,   -2.3,   -2.2,   -2.6,   -2.9,   -3.7,   -4.4,   -4.1,   -3.5,   -3.0,   -3.1,   -2.9,   -4.9,   -2.9,   -2.3,   -0.6,    2.0,    4.8,    3.8,    6.6,    4.9,    4.1,    4.6,    4.8,    5.1,    5.0,    6.4,    6.7,    6.4,    6.4,    5.6,    5.2,    4.5,    2.9,    0.9,   -1.0,   -2.6,   -4.2,   -5.1,   -4.4,   -4.1,   -4.3,   -3.8,   -2.8,   -1.6,   -0.8,   -0.5,   -0.1,    0.9,    1.4,    2.2,    2.9
2001/03/23 17:50,  999.0,  -10.4,   -5.9,   -2.5,   -2.5,   -6.8,   -3.3,   -1.4,   -1.1,   -1.2,   -1.8,   -2.0,   -1.5,   -1.0,   -1.2,   -1.4,   -1.7,   -2.0,   -2.1,   -2.2,   -2.2,   -2.7,   -3.1,   -3.1,   -3.1,   -2.6,   -2.1,   -1.6,   -1.0,   -0.9,   -0.6,   -0.4,   -0.7,   -1.0,   -1.4,   -1.5,   -2.1,   -2.0,   -3.0,   -3.0,   -3.2,   -3.3,   -8.9,   -7.6,   -6.2,   -6.1,   -5.7,   -3.7,   -1.6,   -0.4,   -0.1,   -1.2,   -2.3,   -2.8,   -2.6,   -2.2,   -1.9,   -1.2
2001/03/23 18:00,  999.0,   -5.6,   -2.6,   -3.4,    0.6,   -2.0,   -2.2,  999.0,   -0.4,   -0.9,   -1.6,   -0.3,    0.0,   -0.1,   -0.3,   -0.9,   -1.6,   -0.9,    0.3,    0.3,    1.5,    1.5,    2.0,    0.2,    0.4,    0.4,   -0.8,   -0.9,   -0.3,   -1.6,   -1.6,   -1.7,   -1.9,   -1.6,   -2.0,   -5.4,  -11.9,  -10.8,  -15.0,  -16.3,  -15.0,  -11.2,   -9.5,   -8.6,   -6.6,   -4.6,   -3.9,   -3.3,   -2.3,   -1.9,   -1.5,   -1.2,   -1.1,   -0.9,   -0.9,   -1.1,   -0.6,   -0.5
2001/03/23 18:10,  999.0,   -2.7,   -2.2,   -1.1,    3.1,    1.0,   -2.6,   -1.0,    0.2,    0.8,    1.5,   -0.4,    0.9,    1.0,    1.2,   -2.2,   -1.2,    0.6,    2.3,    3.3,    3.6,    3.2,    2.8,    2.5,    2.2,    1.6,    0.5,    0.1,   -0.3,   -0.0,   -0.1,   -0.5,   -0.4,   -0.6,   -1.1,   -2.1,   -3.3,   -4.9,   -6.2,   -7.2,   -7.3,   -7.0,   -7.5,   -5.7,   -4.8,   -3.1,   -2.0,   -1.3,   -1.4,   -1.7,   -2.0,   -1.9,   -1.8,   -1.7,   -1.7,   -1.6,   -1.6,   -1.8
2001/03/23 18:20,  999.0,   -2.4,   -1.4,   -1.2,   -0.6,    0.9,    1.7,    1.8,    2.0,    1.8,    1.7,    2.4,    2.8,    3.3,    3.6,    3.7,    3.3,    3.7,    4.7,    5.3,    5.1,    5.1,    4.7,    4.2,    4.0,    3.1,    2.7,    2.5,    1.9,    2.5,    3.3,    2.7,    2.3,    2.3,    1.2,    0.3,   -1.3,   -2.5,   -3.4,   -5.3,   -3.8,   -2.7,   -3.2,   -3.2,   -2.0,   -0.5,    0.4,    0.5,    0.0,   -0.7,   -1.5,   -2.5,   -3.7,   -4.3,   -4.1,   -3.3,   -2.9,   -3.0
2001/03/23 18:30,  999.0,   -2.8,   -2.1,   -1.3,   -0.6,    0.6,    2.2,    2.3,    2.5,    2.3,    1.7,    1.6,    1.9,    2.5,    3.1,    4.8,    5.2,    5.4,    6.6,    7.6,    7.9,    7.9,    8.0,    7.2,    7.2,    5.7,    4.5,    5.2,    2.5,    1.8,    2.2,    1.6,    0.9,    0.4,   -1.9,   -3.9,   -5.1,   -6.8,   -8.2,  -10.1,   -6.9,   -3.8,   -2.6,   -2.1,   -1.0,    0.1,   -0.5,   -1.5,   -2.0,   -2.3,   -2.7,   -3.2,   -3.3,   -3.3,   -3.0,   -3.0,   -3.3,   -3.8
2001/03/23 18:40,  999.0,  999.0,   -2.5,   -1.1,   -1.6,   -1.3,    1.7,    1.7,    2.1,    2.7,    4.2,    1.5,    1.1,    1.8,    2.4,    3.1,    3.8,    3.5,    3.6,    2.7,    3.6,    3.8,    3.3,    0.9,   -0.1,   -0.6,   -1.0,   -1.2,   -1.9,    1.1,    0.8,    1.5,   -0.6,    0.1,   -1.8,   -2.4,   -3.1,   -3.7,   -4.8,   -9.2,   -5.7,   -4.3,   -4.0,   -1.3,    0.2,    1.4,    0.5,   -0.4,   -1.0,   -1.8,   -3.1,   -4.2,   -4.7,   -5.0,   -5.2,   -5.3,   -5.7,   -5.9
2001/03/23 18:50,  999.0,   -4.4,    1.1,   -2.8,   -3.3,   -0.9,   -0.4,   -0.0,    2.5,    3.2,   -0.3,   -2.4,   -5.2,   -5.3,   -4.7,   -5.9,   -8.3,   -6.8,   -1.9,   -5.5,   -2.4,   -1.4,    3.6,   -0.2,    3.6,  999.0,  999.0,  999.0,  999.0,    3.2,    4.3,  999.0,    4.4,  999.0,  999.0,  999.0,    5.5,    2.4,  999.0,  999.0,  999.0,  999.0,  999.0,  999.0,  999.0,  999.0,   -3.9,   -4.7,   -5.1,   -6.0,   -6.1,   -5.7,   -6.8,   -7.4,   -7.7,   -8.3,   -8.4,   -7.9
2001/03/23 19:00,  999.0,  999.0,   -0.5,   -1.0,   -0.9,    1.2,    0.8,    1.2,    0.4,    0.8,    0.6,    0.6,    0.9,    0.5,   -0.6,  999.0,    0.1,    0.8,    2.5,    2.2,    3.1,    4.1,    5.9,    4.7,    5.4,    6.0,  999.0,  999.0,  999.0,  999.0,  999.0,  999.0,  999.0,  999.0,  999.0,  999.0,  999.0,    4.8,  999.0,  999.0,  999.0,  999.0,  999.0,  999.0,  999.0,   -0.4,    0.3,   -0.2,    0.0,    0.2,   -1.1,   -2.7,   -2.9,   -5.4,   -6.3,   -6.4,   -6.3,   -6.7
2001/03/23 19:10,  999.0,    1.8,    3.2,    1.3,    0.1,    1.5,    1.9,    1.7,    2.2,    1.7,    1.1,    0.0,   -1.4,   -1.5,   -1.6,   -0.4,   -1.8,  999.0,  999.0,    2.2,    1.2,  999.0,  999.0,  999.0,  999.0,  999.0,  999.0,  999.0,  999.0,  999.0,  999.0,  999.0,  999.0,  999.0,  999.0,  999.0,  999.0,  999.0,  999.0,  999.0,  999.0,  999.0,  999.0,  999.0,  999.0,  999.0,  999.0,  999.0,  999.0,  999.0,  999.0,  999.0,  999.0,  999.0,  999.0,  999.0,  999.0,  999.0
2001/03/23 19:20,  999.0,   -0.3,    3.6,    1.9,    2.4,    1.5,    0.8,    0.8,    1.2,    1.6,    1.9,    0.3,    0.1,   -1.6,   -2.1,   -1.5,   -4.1,  999.0,  999.0,    1.0,  999.0,    1.8,    1.3,  999.0,  999.0,  999.0,  999.0,  999.0,  999.0,  999.0,  999.0,  999.0,  999.0,  999.0,  999.0,  999.0,  999.0,  999.0,  999.0,  999.0,  999.0,  999.0,  999.0,  999.0,  999.0,  999.0,  999.0,  999.0,  999.0,  999.0,  999.0,  999.0,  999.0,  999.0,  999.0,  999.0,  999.0,  999.0
2001/03/23 19:30,  999.0,    0.8,    0.1,    0.9,    2.4,    2.9,    3.9,    3.6,    4.0,    5.1,    4.4,    2.3,    1.0,    1.5,    1.8,    2.6,  999.0,  999.0,    1.4,  999.0,  999.0,  999.0,  999.0,    1.7,    0.2,  999.0,  999.0,  999.0,  999.0,  999.0,  999.0,  999.0,  999.0,  999.0,  999.0,  999.0,  999.0,  999.0,  999.0,  999.0,  999.0,  999.0,  999.0,  999.0,  999.0,  999.0,  999.0,  999.0,  999.0,  999.0,  999.0,  999.0,  999.0,  999.0,  999.0,  999.0,  999.0,  999.0
2001/03/23 19:40,  999.0,    3.8,    2.3,    1.9,    0.2,    0.4,    2.1,    1.7,    2.7,    2.4,    1.2,    1.1,    0.7,    0.2,    0.6,    1.0,  999.0,  999.0,  999.0,  999.0,  999.0,  999.0,  999.0,  999.0,  999.0,  999.0,  999.0,  999.0,  999.0,  999.0,  999.0,  999.0,  999.0,  999.0,  999.0,  999.0,  999.0,  999.0,  999.0,  999.0,  999.0,  999.0,  999.0,  999.0,  999.0,  999.0,  999.0,  999.0,  999.0,  999.0,  999.0,  999.0,  999.0,  999.0,  999.0,  999.0,  999.0,  999.0
2001/03/23 19:50,  999.0,  999.0,    1.4,    0.9,   -0.1,    0.6,    1.7,    1.2,    1.6,    2.5,    2.9,    0.9,   -1.0,   -1.0,   -0.4,   -0.4,  999.0,  999.0,  999.0,  999.0,  999.0,  999.0,  999.0,  999.0,  999.0,  999.0,  999.0,  999.0,  999.0,  999.0,  999.0,  999.0,  999.0,  999.0,  999.0,  999.0,  999.0,  999.0,  999.0,  999.0,  999.0,  999.0,  999.0,  999.0,  999.0,  999.0,  999.0,  999.0,  999.0,  999.0,  999.0,  999.0,  999.0,  999.0,  999.0,  999.0,  999.0,  999.0
2001/03/23 20:00,  999.0,   -0.4,    0.9,    0.3,    1.1,    0.8,    1.2,    2.1,    2.2,    1.4,    1.4,   -0.1,   -3.4,   -6.3,   -1.8,    1.5,  999.0,  999.0,  999.0,  999.0,  999.0,  999.0,  999.0,  999.0,  999.0,  999.0,  999.0,  999.0,  999.0,  999.0,  999.0,  999.0,  999.0,  999.0,  999.0,  999.0,  999.0,  999.0,  999.0,  999.0,  999.0,  999.0,  999.0,  999.0,  999.0,  999.0,  999.0,  999.0,  999.0,  999.0,  999.0,  999.0,  999.0,  999.0,  999.0,  999.0,  999.0,  999.0
2001/03/23 20:10,  999.0,    3.0,   -0.1,    0.6,    0.3,    0.8,    1.8,    2.8,    2.6,    1.1,    0.7,    0.2,   -0.4,  999.0,   -6.2,   -6.5,   -6.2,   -8.6,   -8.5,   -8.9,   -8.5,  999.0,  999.0,  999.0,  999.0,  999.0,  999.0,  999.0,  999.0,  999.0,  999.0,  999.0,  999.0,  999.0,  999.0,  999.0,  999.0,  999.0,  999.0,  999.0,  999.0,  999.0,  999.0,  999.0,  999.0,  999.0,  999.0,  999.0,  999.0,  999.0,  999.0,  999.0,  999.0,  999.0,  999.0,  999.0,  999.0,  999.0
2001/03/23 20:20,  999.0,    1.9,    0.8,    1.5,    1.7,    0.3,    1.8,    2.3,    2.6,   -1.3,   -2.7,   -5.0,  -10.5,  -10.0,   -9.3,  -10.0,   -9.0,   -7.2,   -7.6,   -7.5,  999.0,  999.0,  999.0,  999.0,  999.0,  999.0,  999.0,    0.9,    1.5,  999.0,  999.0,  999.0,  999.0,  999.0,  999.0,  999.0,  999.0,  999.0,  999.0,  999.0,  999.0,  999.0,  999.0,  999.0,  999.0,  999.0,  999.0,  999.0,  999.0,  999.0,  999.0,  999.0,  999.0,  999.0,  999.0,  999.0,  999.0,  999.0
2001/03/23 20:30,  999.0,    1.8,    0.3,    2.0,    2.1,    2.8,    3.1,    3.9,    3.8,    3.3,    2.1,    0.4,   -1.2,   -2.9,    0.7,  999.0,    2.6,    0.3,  999.0,  999.0,  999.0,  999.0,  999.0,  999.0,  999.0,  999.0,  999.0,  999.0,  999.0,  999.0,  999.0,  999.0,  999.0,  999.0,  999.0,  999.0,  999.0,  999.0,  999.0,  999.0,  999.0,  999.0,  999.0,  999.0,  999.0,  999.0,  999.0,  999.0,  999.0,  999.0,  999.0,  999.0,  999.0,  999.0,  999.0,  999.0,  999.0,  999.0
2001/03/23 20:40,  999.0,    1.0,    0.5,    0.3,    1.0,    1.9,    1.6,    2.5,    3.8,    3.0,    1.3,   -0.2,   -1.0,   -0.9,   -0.2,  999.0,    1.7,    2.9,  999.0,  999.0,  999.0,  999.0,  999.0,  999.0,  999.0,  999.0,  999.0,  999.0,  999.0,  999.0,  999.0,  999.0,  999.0,  999.0,  999.0,  999.0,  999.0,  999.0,  999.0,  999.0,  999.0,  999.0,  999.0,  999.0,  999.0,  999.0,  999.0,  999.0,  999.0,  999.0,  999.0,  999.0,  999.0,  999.0,  999.0,  999.0,  999.0,  999.0
2001/03/23 20:50,  999.0,    0.5,    1.0,    1.6,    0.9,    1.2,    2.4,    3.5,    2.5,    2.1,    1.1,   -0.4,   -1.6,   -1.6,   -0.4,    0.8,    2.5,    2.1,    1.4,    2.3,    1.2,  999.0,  999.0,  999.0,  999.0,  999.0,  999.0,  999.0,  999.0,  999.0,  999.0,  999.0,  999.0,    1.1,    1.9,  999.0,  999.0,  999.0,  999.0,  999.0,  999.0,  999.0,  999.0,  999.0,  999.0,  999.0,  999.0,  999.0,  999.0,  999.0,  999.0,  999.0,  999.0,  999.0,  999.0,  999.0,  999.0,  999.0
2001/03/23 21:00,  999.0,  999.0,    0.2,    0.6,    0.3,    0.9,    2.1,    3.0,    1.7,    1.1,    0.3,   -1.3,   -1.1,   -1.6,   -1.4,   -0.9,    0.2,    1.7,    2.3,    3.0,    2.7,  999.0,  999.0,  999.0,  999.0,  999.0,  999.0,  999.0,  999.0,  999.0,  999.0,  999.0,    2.2,    2.2,  999.0,  999.0,  999.0,  999.0,  999.0,  999.0,  999.0,  999.0,  999.0,  999.0,  999.0,  999.0,  999.0,  999.0,  999.0,  999.0,  999.0,  999.0,  999.0,  999.0,  999.0,  999.0,  999.0,  999.0
2001/03/23 21:10,  999.0,    1.0,    0.2,    0.2,    1.2,    2.7,    3.1,    3.9,    1.9,    1.6,    0.1,   -0.9,   -1.1,   -1.6,   -1.6,  999.0,  999.0,  999.0,  999.0,  999.0,  999.0,  999.0,  999.0,  999.0,  999.0,  999.0,  999.0,  999.0,  999.0,  999.0,  999.0,  999.0,  999.0,  999.0,  999.0,  999.0,  999.0,  999.0,  999.0,  999.0,  999.0,  999.0,  999.0,  999.0,  999.0,  999.0,  999.0,  999.0,  999.0,  999.0,  999.0,  999.0,  999.0,  999.0,  999.0,  999.0,  999.0,  999.0
2001/03/23 21:20,  999.0,   -0.3,   -0.2,    2.0,    2.0,    2.7,    2.4,    2.4,    2.2,    1.8,    0.6,   -1.0,   -2.0,   -2.3,   -1.5,  999.0,  999.0,  999.0,  999.0,  999.0,  999.0,  999.0,  999.0,  999.0,  999.0,  999.0,  999.0,  999.0,  999.0,  999.0,  999.0,  999.0,    1.4,    2.6,  999.0,  999.0,  999.0,  999.0,  999.0,  999.0,  999.0,  999.0,  999.0,  999.0,  999.0,  999.0,  999.0,  999.0,  999.0,  999.0,  999.0,  999.0,  999.0,  999.0,  999.0,  999.0,  999.0,  999.0
2001/03/23 21:30,  999.0,  999.0,  999.0,    1.2,    1.5,    1.5,    2.5,    1.7,    1.8,    1.3,   -1.5,   -0.7,   -1.0,   -0.1,    0.1,    0.5,  999.0,  999.0,  999.0,  999.0,  999.0,  999.0,  999.0,  999.0,  999.0,  999.0,  999.0,  999.0,  999.0,  999.0,  999.0,  999.0,  999.0,  999.0,  999.0,  999.0,  999.0,  999.0,  999.0,  999.0,  999.0,  999.0,   35.0,  999.0,  999.0,  999.0,  999.0,  999.0,   32.7,   40.1,  999.0,   36.1,  999.0,  999.0,  999.0,  999.0,  999.0,  999.0
2001/03/23 21:40,  999.0,   -0.4,    0.3,    0.9,   -0.3,    1.3,    1.8,    1.7,    1.1,    0.3,    0.2,    4.6,   -2.2,   -0.0,    0.0,  999.0,    0.2,  999.0,  999.0,  999.0,  999.0,  999.0,  999.0,  999.0,  999.0,  999.0,  999.0,  999.0,  999.0,  999.0,  999.0,  999.0,  999.0,  999.0,  999.0,  999.0,  999.0,   32.7,  999.0,  999.0,  999.0,   35.6,  999.0,   36.4,  999.0,  999.0,   38.1,  999.0,  999.0,   40.5,  999.0,   40.6,  999.0,   41.5,  999.0,  999.0,  999.0,  999.0
2001/03/23 21:50,  999.0,  999.0,    2.7,    2.4,    1.9,    2.0,    2.1,    1.9,    0.4,    0.3,   -0.4,   -0.9,   -0.5,   -0.5,   -0.0,    0.6,  999.0,  999.0,  999.0,  999.0,  999.0,  999.0,  999.0,  999.0,  999.0,  999.0,  999.0,  999.0,  999.0,  999.0,  999.0,  999.0,  999.0,  999.0,  999.0,  999.0,  999.0,  999.0,  999.0,  999.0,  999.0,  999.0,  999.0,  999.0,  999.0,  999.0,  999.0,  999.0,  999.0,  999.0,  999.0,  999.0,  999.0,  999.0,  999.0,  999.0,  999.0,  999.0
2001/03/23 22:00,  999.0,    2.7,    1.3,    1.5,    1.0,    0.6,    1.3,    0.2,   -1.4,   -1.2,   -0.5,   -0.3,   -0.3,   -0.6,   -1.6,   -0.7,    0.2,  999.0,  999.0,  999.0,  999.0,  999.0,   16.8,  999.0,  999.0,  999.0,  999.0,  999.0,  999.0,  999.0,  999.0,  999.0,  999.0,  999.0,  999.0,  999.0,  999.0,  999.0,   41.7,   42.1,  999.0,   41.6,  999.0,  999.0,  999.0,  999.0,   42.2,   42.3,  999.0,  999.0,   41.9,  999.0,  999.0,   42.3,   42.0,  999.0,   42.8,  999.0
2001/03/23 22:10,  999.0,    0.8,    2.3,    3.5,    2.8,    1.0,   -0.3,   -1.5,   -1.9,   -2.2,   -1.9,   -0.6,    0.1,    0.1,   -0.9,   -0.2,    0.6,    0.8,    2.2,    2.8,  999.0,  999.0,  999.0,  999.0,  999.0,  999.0,  999.0,  999.0,  999.0,  999.0,  999.0,  999.0,  999.0,  999.0,  999.0,  999.0,  999.0,  999.0,  999.0,  999.0,   37.6,  999.0,  999.0,   40.0,  999.0,   41.0,  999.0,  999.0,   42.0,  999.0,  999.0,  999.0,  999.0,   41.9,  999.0,   42.0,  999.0,   41.6
2001/03/23 22:20,  999.0,    1.7,    1.0,    2.2,    2.6,    1.4,    1.2,   -1.4,   -1.5,   -1.3,   -0.9,    0.0,    0.3,    0.3,    0.8,    1.5,    2.1,    1.6,  999.0,    3.2,  999.0,  999.0,  999.0,  999.0,  999.0,  999.0,  999.0,  999.0,  999.0,  999.0,  999.0,  999.0,  999.0,  999.0,  999.0,  999.0,  999.0,  999.0,  999.0,   36.2,  999.0,   36.9,   36.6,   37.3,   38.3,  999.0,  999.0,   40.9,   41.6,   41.0,   41.5,   41.8,   41.6,   41.6,   41.8,  999.0,   41.9,   41.8
2001/03/23 22:30,  999.0,  999.0,    1.7,    1.4,    2.1,    1.8,    1.5,   -0.7,   -0.1,   -0.5,   -0.8,   -0.3,    0.4,    0.7,    0.9,    1.5,    2.2,    2.5,    2.8,    3.3,  999.0,  999.0,  999.0,  999.0,  999.0,  999.0,  999.0,  999.0,  999.0,  999.0,  999.0,  999.0,  999.0,  999.0,  999.0,  999.0,  999.0,  999.0,  999.0,  999.0,  999.0,  999.0,  999.0,   40.3,  999.0,  999.0,  999.0,   41.6,   41.7,   42.3,   42.5,  999.0,  999.0,   41.1,  999.0,   41.7,  999.0,  999.0
2001/03/23 22:40,  999.0,    1.0,    1.0,    1.2,    1.2,    1.6,    1.3,   -0.1,   -1.2,   -0.2,    0.6,    0.4,    0.7,    1.1,    1.2,    1.5,    1.9,    2.2,    3.2,    2.4,    3.1,  999.0,  999.0,    8.1,  999.0,  999.0,  999.0,  999.0,  999.0,  999.0,  999.0,  999.0,  999.0,  999.0,  999.0,  999.0,  999.0,  999.0,  999.0,   38.6,  999.0,  999.0,  999.0,  999.0,  999.0,   40.6,   40.7,  999.0,   41.8,  999.0,   42.2,   41.9,  999.0,   41.6,   41.5,   41.7,   41.8,  999.0
2001/03/23 22:50,  999.0,    1.4,    1.4,    2.1,    2.9,    2.6,    2.2,    1.5,   -0.1,   -0.1,    0.5,    1.1,    1.2,    1.2,    1.3,    2.6,    2.6,    3.6,    4.5,    4.5,    5.1,    6.5,  999.0,  999.0,  999.0,  999.0,  999.0,  999.0,  999.0,  999.0,  999.0,  999.0,  999.0,  999.0,  999.0,  999.0,   31.6,  999.0,  999.0,   37.0,  999.0,   39.2,  999.0,  999.0,  999.0,  999.0,   41.8,  999.0,   41.6,   41.6,  999.0,  999.0,   42.3,   41.4,  999.0,   42.0,  999.0,   41.6
2001/03/23 23:00,  999.0,   -1.2,    0.2,    2.2,    2.2,    3.3,    2.9,    2.2,    2.8,    2.0,    1.8,    1.6,    1.3,    1.0,    1.5,    3.6,    3.2,    2.9,    4.2,    5.0,    5.0,    6.7,  999.0,    9.2,  999.0,  999.0,  999.0,  999.0,  999.0,  999.0,  999.0,  999.0,  999.0,  999.0,  999.0,  999.0,  999.0,  999.0,  999.0,  999.0,  999.0,  999.0,  999.0,  999.0,  999.0,  999.0,  999.0,  999.0,  999.0,  999.0,  999.0,   41.7,   41.3,  999.0,   41.7,  999.0,   41.6,   41.5
2001/03/23 23:10,  999.0,    1.6,    2.1,    2.9,    3.1,    3.0,    3.5,    2.5,    2.3,    2.4,    1.6,    1.3,    1.2,    1.1,    1.9,    3.0,    3.6,    3.0,    3.0,    3.1,    3.4,  999.0,    5.2,    6.1,  999.0,  999.0,  999.0,  999.0,  999.0,  999.0,  999.0,  999.0,  999.0,  999.0,  999.0,  999.0,  999.0,  999.0,  999.0,  999.0,  999.0,  999.0,  999.0,  999.0,  999.0,  999.0,  999.0,  999.0,   41.2,   41.7,   42.0,  999.0,   41.1,   40.7,   41.8,   41.9,  999.0,   41.2
2001/03/23 23:20,  999.0,    2.2,    1.7,    2.4,    2.6,    3.0,    2.2,    1.7,    0.7,    0.5,    1.2,    1.3,    1.1,    1.4,    1.8,    2.4,    3.0,    2.4,    2.6,    2.8,  999.0,  999.0,  999.0,  999.0,  999.0,  999.0,  999.0,  999.0,  999.0,  999.0,  999.0,  999.0,  999.0,  999.0,  999.0,  999.0,  999.0,  999.0,  999.0,  999.0,  999.0,  999.0,  999.0,   38.0,  999.0,  999.0,  999.0,   39.5,   39.7,  999.0,   39.8,  999.0,   41.2,   41.4,  999.0,  999.0,  999.0,  999.0
2001/03/23 23:30,  999.0,    1.2,    0.8,    0.7,    1.6,    0.8,    2.4,    3.3,    2.9,    2.0,    1.4,    2.0,    2.3,    3.1,    3.5,    2.5,    1.5,    1.6,    1.0,    1.5,  999.0,  999.0,  999.0,  999.0,  999.0,   15.5,  999.0,  999.0,  999.0,  999.0,  999.0,  999.0,  999.0,  999.0,  999.0,  999.0,  999.0,  999.0,   34.5,  999.0,   38.3,   37.5,  999.0,   40.6,   40.4,   41.2,   41.3,   41.3,   41.1,   41.4,  999.0,   41.2,   41.5,   42.0,   41.7,   41.5,   41.7,  999.0
2001/03/23 23:40,  999.0,    1.6,    1.6,    0.3,   -0.1,    0.6,    1.1,    1.4,    1.5,    1.2,    2.0,    1.3,    2.1,    3.0,    2.6,    2.1,    1.6,    1.9,    2.3,    2.8,  999.0,  999.0,  999.0,  999.0,  999.0,  999.0,  999.0,  999.0,  999.0,  999.0,  999.0,  999.0,  999.0,  999.0,  999.0,  999.0,  999.0,  999.0,   31.5,  999.0,  999.0,  999.0,  999.0,  999.0,   39.2,  999.0,   39.9,   41.3,   40.7,  999.0,   41.7,   34.4,  999.0,  999.0,   36.3,   42.0,   42.0,  999.0
2001/03/23 23:50,  999.0,  999.0,    0.4,   -1.4,    1.0,    0.7,    1.7,    2.3,    1.9,    0.8,    0.7,    1.2,    0.7,    1.6,    1.4,    1.2,    1.3,    2.0,  999.0,    3.0,    3.6,  999.0,  999.0,  999.0,  999.0,  999.0,  999.0,  999.0,  999.0,  999.0,  999.0,  999.0,  999.0,  999.0,  999.0,  999.0,  999.0,  999.0,  999.0,  999.0,  999.0,  999.0,  999.0,  999.0,   38.9,   40.7,   41.3,   40.0,   42.3,  999.0,  999.0,  999.0,   41.5,   41.9,  999.0,   41.7,   42.5,   41.6
